GFSSW_850_dewp_000.txt.gz
Dewpoint
-10 -10 -11 -11 -12 -12 -12 -13 -13 -14 -14 -14 -13 -16 -18 -18 -18 -18 -15 -7 -9 -14 -12 4 7 7 3 0 -0 4 8 16 13 12 6 4 0 2 6 10 10 8 14 16 16
-9 -10 -10 -11 -12 -13 -13 -14 -15 -15 -15 -13 -12 -13 -14 -17 -17 -20 -5 -10 -9 -17 -10 -1 3 3 -0 -2 -2 2 12 11 8 6 1 -1 0 -0 10 12 10 3 14 16 15
-7 -8 -9 -10 -11 -12 -13 -14 -15 -15 -15 -13 -12 -10 -9 -12 -4 1 -3 -4 -12 -17 -4 -2 1 -1 -4 -4 -1 3 11 11 9 2 -0 -1 -2 1 9 11 8 5 12 15 15
-6 -7 -8 -9 -10 -11 -12 -14 -15 -14 -14 -14 -14 -10 -8 -10 1 4 -3 -10 -11 -16 2 0 -3 -6 -7 -4 -2 2 1 6 1 1 0 -1 -1 -2 -1 7 6 6 14 15 14
-6 -7 -7 -8 -9 -10 -11 -12 -13 -13 -13 -14 -14 -11 -8 4 -0 -6 -2 -11 -15 -10 1 -4 -5 -7 -7 -6 -2 0 0 -0 1 1 0 -1 -2 -1 4 7 11 13 14 14 14
-7 -8 -8 -9 -9 -9 -10 -11 -12 -13 -13 -13 -14 -12 -6 3 -1 -12 -1 -10 -13 0 -2 -5 -7 -8 -8 -5 -4 -3 0 1 -1 -0 -1 -1 2 2 2 4 9 12 12 13 13
-8 -9 -9 -10 -10 -11 -10 -10 -11 -12 -13 -13 -13 -12 2 1 -1 -3 -0 -2 -2 1 -5 -6 -7 -6 -7 -3 -3 -5 -2 1 0 -1 -1 -4 6 5 -2 1 7 10 11 11 13
-9 -9 -10 -11 -12 -12 -12 -12 -11 -12 -13 -13 -12 -11 2 0 -1 -1 -0 -0 -1 -2 -5 -5 -5 -3 -1 -2 -1 1 -0 3 -0 -2 -2 -2 6 7 2 4 7 8 10 10 12
-9 -9 -9 -10 -12 -13 -13 -13 -13 -12 -11 -12 -5 4 -0 -1 -2 -3 -0 -2 -3 -5 -5 -3 0 0 -1 -0 1 -0 2 0 8 8 -3 -2 6 7 6 7 7 8 9 10 12
-8 -8 -9 -9 -10 -14 -14 -13 -12 -3 -4 -9 -7 4 2 -1 -3 -3 -2 -1 -3 -6 -5 -2 -2 0 -1 0 4 -1 1 7 11 8 -2 -3 -2 6 3 3 4 8 9 10 11
-6 -7 -8 -9 -10 -12 -14 -2 4 7 4 1 -0 -9 -4 -0 -2 -2 -3 -3 -3 -5 -5 -5 -2 -2 -3 -2 -2 -2 -0 -0 10 5 -1 -1 -2 -1 2 4 1 7 9 10 10
-6 -6 -6 -8 -10 -11 -7 1 -3 -5 -5 -6 -8 -9 -10 -2 0 -2 -4 -5 -3 -2 -5 -6 -4 -6 -5 -5 -5 -2 -1 -1 -2 -2 -1 -1 -2 1 9 9 7 6 8 9 10
-8 -7 -6 -6 -9 -7 -3 -4 -5 -5 -4 -8 -10 -10 -11 -9 -4 -3 -4 -5 -3 -2 -3 -4 -8 -9 -9 -8 -7 -5 -3 -2 -2 -4 -1 -1 0 0 9 6 3 3 7 7 8
-11 -11 -8 -6 -7 -2 -5 -2 -6 -3 -3 -9 -10 -11 -12 -11 -11 -10 -4 -4 -3 -2 -3 -3 -6 -8 -10 -10 -10 -8 -6 -5 -4 -3 -1 -3 2 3 8 8 5 6 4 5 7
-12 -12 -11 -7 -7 -4 -3 -4 -6 -4 -1 -11 -11 -12 -12 -12 -13 -12 -3 -3 -2 -2 -4 -3 -5 -8 -9 -9 -12 -10 -8 -5 -4 -3 -3 -2 -2 7 6 8 6 5 6 5 8
-11 -13 -12 -5 -5 -8 -4 -6 -5 -2 -3 -9 -10 -9 -10 -12 -14 -12 -6 -2 -3 -3 -4 -5 -8 -10 -10 -11 -10 -11 -9 -4 -3 -6 -2 -2 -2 6 10 9 7 5 3 7 14
-11 -12 -15 -10 -3 -3 -4 -6 -4 -2 -10 -12 -10 -11 -11 -10 -12 -12 -11 -3 -1 0 -1 -2 -6 -8 -8 -8 -9 -8 -5 -0 1 -1 0 1 -2 5 5 6 6 6 6 12 15
-12 -13 -15 -15 -8 -3 -4 -5 -0 -5 -8 -13 -13 -13 -11 -12 -11 -12 -9 -4 -3 -2 -2 0 0 -6 -8 -8 -8 -6 -4 -0 4 3 4 10 8 9 6 5 3 4 7 13 15
-11 -8 -2 -16 -12 -2 -4 -3 -4 -4 -7 -11 -13 -11 -12 -13 -12 -11 -7 -6 -4 -3 1 -2 -2 -6 -8 -8 -9 -7 -4 -5 -1 -2 3 10 6 3 3 5 7 6 6 12 14
-9 -3 -3 -3 -2 -4 -4 -3 -8 -11 -10 -12 -11 -13 -12 -13 -11 -10 -6 -7 -6 -6 -5 -2 -0 -5 -7 -6 -7 -7 -7 -2 -4 3 4 3 4 8 11 11 8 8 7 11 15
-4 0 -5 -3 -3 -4 -4 -7 -9 -11 -11 -12 -10 -10 -12 -13 -10 -9 -9 -7 -8 -7 -7 -5 -2 -3 -7 -6 -5 -6 -6 -5 -3 -2 1 4 10 10 10 10 11 9 9 11 15
-0 -2 -2 -3 -5 -6 -5 -7 -10 -12 -12 -12 -12 -11 -11 -12 -9 -7 -8 -9 -9 -9 -5 -6 -4 -1 -3 -7 -7 -7 -5 -4 1 6 1 3 11 7 12 11 9 9 11 12 14
1 -3 -2 -2 -2 -6 -8 -9 -10 -11 -10 -11 -12 -12 -12 -9 -7 -6 -7 -10 -9 -9 -5 -6 -3 -1 1 -3 -5 -5 -6 -5 -0 5 6 3 4 7 10 12 10 10 12 13 15
2 -3 -5 -3 -4 -5 -5 -6 -7 -11 -11 -10 -12 -13 -12 -9 -9 -6 -5 -8 -7 -7 1 -0 2 1 -0 0 1 -2 -4 -6 -2 2 1 -1 10 9 11 12 13 12 12 15 15
2 -2 -2 -2 -5 -5 -5 -3 -3 -7 -9 -9 -9 -11 -10 -6 -7 -7 -6 -3 -8 -5 -3 -1 7 2 -2 -1 -1 0 -1 -4 -5 -2 -2 1 5 11 12 11 7 12 15 16 16
2 1 1 0 1 2 -1 -5 -2 -3 -7 -7 -9 -9 -9 -4 -5 -4 -6 -3 -2 -4 -0 1 6 4 3 -0 -2 -0 -1 -4 -6 -7 -5 -4 12 10 8 6 6 10 16 15 15
2 1 1 -0 -1 -1 -0 -1 -4 -3 -3 -9 -6 -7 -7 -6 -7 -7 -8 -1 -1 -0 2 5 5 8 6 1 -0 2 -1 0 -4 -5 -4 7 11 10 10 10 9 15 14 14 15

GFSSW_850_dewp_003.txt.gz
Dewpoint
-10 -11 -11 -12 -12 -13 -14 -14 -15 -16 -15 -14 -14 -14 -17 -20 -20 -19 -21 -17 -9 -11 -14 -5 0 5 6 2 0 -1 10 13 13 11 9 6 6 9 7 10 10 11 5 13 17
-9 -9 -10 -11 -12 -13 -13 -15 -15 -16 -16 -15 -14 -12 -13 -16 -18 -19 -14 -15 -9 -9 -15 1 3 5 3 -0 -1 1 9 9 8 7 7 6 5 6 7 7 5 14 15 17 16
-7 -8 -9 -10 -10 -11 -12 -13 -15 -15 -15 -16 -15 -12 -10 -12 -2 2 -7 -8 -10 -14 -16 -3 -1 0 -1 -4 -5 -1 10 7 5 6 6 6 5 4 8 9 6 9 17 16 16
-7 -8 -8 -9 -9 -10 -11 -11 -14 -14 -14 -15 -16 -13 -10 -11 5 3 -6 -10 -12 -15 -2 -1 -0 -1 -5 -6 -7 -3 1 6 6 7 6 -0 0 9 4 6 4 8 16 16 15
-9 -9 -10 -10 -10 -10 -10 -11 -12 -13 -14 -14 -15 -14 -9 0 3 1 -8 -7 -15 -16 1 1 -1 -5 -6 -8 -8 -3 -0 0 3 2 -0 -0 1 5 7 7 6 9 16 16 15
-9 -10 -11 -11 -12 -12 -12 -11 -11 -12 -13 -14 -14 -14 -8 7 -0 -2 -8 -3 -14 -15 -2 -1 -5 -7 -8 -8 -5 -3 -3 -3 0 1 -1 1 1 -0 7 10 7 13 15 15 15
-9 -10 -11 -12 -13 -13 -14 -14 -13 -12 -13 -14 -13 -12 -11 -4 -1 -2 -9 -3 -7 -7 -1 -5 -6 -6 -6 -3 -5 -2 -0 -3 1 3 2 2 4 2 4 10 12 13 15 15 14
-9 -10 -10 -11 -13 -14 -15 -15 -15 -14 -14 -14 -13 -10 -12 1 -1 -2 -6 -2 -2 -1 -3 -5 -6 -5 -3 -1 1 -1 -0 3 4 4 4 4 2 5 1 4 6 14 14 14 13
-9 -8 -8 -8 -9 -12 -16 -16 -16 -15 -11 -10 -7 8 3 0 -1 -2 -2 -1 -1 -1 -4 -5 -3 -0 1 2 1 1 4 8 7 3 4 5 5 6 5 4 6 11 12 13 13
-7 -7 -8 -8 -9 -10 -16 -13 -4 -5 -1 -5 -6 3 -1 2 -0 -2 -2 -1 -2 -4 -6 -4 -2 1 1 1 3 3 7 9 8 6 3 4 6 7 7 8 11 12 13 13 12
-6 -6 -7 -8 -9 -10 -10 -0 -1 6 -4 5 0 -10 -5 -2 -3 -2 -4 -1 -3 -5 -3 -3 -0 1 0 -1 -2 -2 -1 7 7 5 4 6 5 7 6 8 9 12 8 12 13
-8 -7 -7 -8 -10 -10 -11 -3 -4 -5 -4 -8 -6 -5 -3 -3 -1 -2 -4 -2 -3 -1 -4 -3 -3 -4 -4 -4 -4 -4 -4 -2 -0 5 5 4 3 8 8 7 5 10 10 10 13
-13 -12 -10 -8 -9 -3 -2 -4 -3 -5 -3 -5 -10 -9 -7 -9 -1 -0 -2 -4 -3 -1 -2 -2 -5 -7 -7 -7 -8 -8 -6 -4 -2 -3 0 1 4 9 9 6 4 9 9 11 10
-15 -16 -15 -15 -10 -3 -3 -3 -5 -4 -0 -4 -8 -10 -10 -10 -9 -4 -3 -6 -4 -2 -1 -1 -4 -5 -5 -8 -9 -8 -9 -10 -5 -4 -1 -2 3 10 9 7 6 7 3 6 9
-12 -16 -16 -13 -9 -5 -3 -3 -6 -4 4 -7 -10 -11 -10 -11 -11 -10 -5 -5 -4 -3 -2 0 -2 -3 -3 -6 -10 -9 -11 -9 -2 -1 -1 -0 1 10 9 8 7 8 7 3 9
-11 -13 -16 -11 -10 -5 -4 -4 -5 0 3 -7 -11 -11 -11 -11 -11 -11 -7 -5 -5 -3 -3 -2 -5 -5 -7 -9 -10 -9 -8 -4 -3 -2 0 -1 2 9 10 8 8 8 6 6 9
-11 -11 -15 -14 -8 -2 -3 -5 -1 2 -6 -11 -8 -10 -9 -10 -11 -12 -3 -0 1 2 2 -0 -3 -5 -8 -6 -6 -7 -4 1 3 4 3 7 7 8 6 7 7 7 8 13 16
-12 -13 -15 -17 -14 -5 -3 -2 2 -3 -6 -10 -10 -9 -8 -9 -9 -11 -8 -0 -1 -1 1 2 2 -2 -7 -5 -5 -3 -2 2 4 6 6 8 9 14 9 5 5 14 16 16 16
-14 -13 -13 -11 -15 -4 -1 1 -0 -3 -6 -8 -9 -8 -9 -11 -10 -10 -10 -8 -8 -2 1 2 2 -2 -5 -7 -7 -5 0 -2 0 0 2 8 8 7 10 8 7 15 15 14 13
-12 -9 -16 -3 -5 -5 0 -0 -4 -9 -10 -9 -6 -7 -8 -9 -11 -11 -6 -9 -7 -7 -3 -1 2 -1 -4 -7 -6 -6 -5 -1 1 1 4 9 12 13 11 8 9 12 15 13 13
-8 2 -1 -1 -2 -4 -1 -3 -7 -9 -11 -8 -7 -7 -7 -6 -8 -10 -7 -8 -7 -7 -5 -3 1 -0 -1 -2 -0 -1 -2 -3 -0 2 2 9 11 11 10 12 12 11 14 15 15
-2 1 -4 -2 -2 -3 -3 -5 -8 -8 -9 -9 -8 -8 -8 -7 -7 -6 -6 -7 -11 -7 -5 -3 2 3 0 -4 -5 -6 -3 -2 3 4 6 8 11 8 10 9 9 10 11 16 14
1 1 -3 -3 0 -2 -5 -7 -8 -8 -8 -9 -8 -9 -10 -8 -3 -2 -3 -8 -8 -5 -0 0 -0 2 1 1 -2 -3 -3 -1 3 5 4 8 11 10 12 12 5 3 9 15 15
2 3 -3 -1 -2 -1 -1 -2 -5 -9 -10 -10 -9 -8 -7 -7 -6 -2 -5 -6 -8 1 -3 -0 5 1 1 4 3 2 1 -3 0 4 2 2 11 11 11 10 10 6 8 12 14
3 3 2 3 0 2 1 -3 -3 -2 -3 -10 -6 -6 -6 -4 -5 -3 -4 -7 -8 -4 -5 2 5 6 5 3 -1 1 1 0 1 -1 4 3 10 10 12 11 11 14 12 14 14
3 3 2 1 0 2 2 3 1 -4 -2 -3 -4 -7 -7 -2 -1 -1 -4 -1 1 0 -2 1 7 6 7 5 3 2 2 3 0 -2 -3 5 11 11 8 11 14 12 9 12 15
2 1 2 -1 -0 -1 1 -0 -1 -2 -6 -4 -3 -6 -6 -7 0 0 -2 -4 1 6 5 6 5 9 8 7 6 6 5 6 5 3 2 7 8 10 9 11 15 11 14 16 15

GFSSW_850_dewp_006.txt.gz
Dewpoint
-10 -10 -11 -12 -12 -13 -14 -15 -15 -16 -16 -15 -14 -13 -13 -17 -19 -20 -21 -18 -13 -13 -12 -7 -15 5 5 5 1 -0 10 13 12 12 10 10 10 11 9 10 11 9 9 13 16
-8 -9 -10 -11 -11 -12 -13 -13 -15 -15 -15 -16 -15 -14 -12 -13 -15 -16 -11 -18 -11 -9 -13 -2 3 5 6 2 -0 1 8 10 9 9 8 7 8 9 7 10 9 13 13 16 16
-8 -8 -9 -10 -11 -11 -12 -12 -14 -14 -15 -15 -15 -15 -12 -13 -1 3 -8 -10 -11 -12 -14 -0 -0 1 3 -0 -3 1 6 7 5 6 5 6 5 4 7 8 9 13 16 16 16
-9 -10 -10 -10 -11 -11 -12 -12 -13 -13 -14 -14 -15 -15 -13 -11 5 1 -7 -10 -11 -15 -7 -2 -2 -1 -4 -5 -7 -4 -1 1 3 4 7 7 5 7 5 6 4 12 16 16 16
-9 -10 -11 -12 -12 -13 -13 -12 -13 -13 -13 -14 -14 -15 -13 -4 -8 2 -9 -7 -14 -16 -2 -0 1 -1 -5 -7 -7 -6 -6 -3 -0 5 4 4 6 7 8 7 6 16 16 16 16
-10 -10 -11 -12 -13 -14 -14 -14 -14 -13 -13 -14 -14 -14 -11 3 0 -2 -5 -6 -11 -17 0 1 -2 -5 -5 -7 -6 -7 -3 -1 2 3 3 2 5 6 7 7 13 16 16 15 15
-10 -10 -11 -12 -13 -14 -15 -15 -15 -14 -14 -14 -14 -13 -12 -15 -1 -1 -8 -4 -5 -16 -4 -5 -5 -6 -6 -3 -2 -0 0 -1 3 3 3 2 4 1 8 5 15 16 16 16 15
-10 -10 -10 -9 -10 -12 -14 -16 -16 -16 -15 -14 -14 -12 -14 -1 -0 -1 -7 -3 -3 -2 -3 -3 -5 -5 -4 -1 1 2 2 5 2 3 4 2 5 3 9 10 13 14 14 14 15
-9 -9 -8 -8 -9 -10 -11 -15 -15 -14 -15 -9 -11 2 -4 1 0 -1 -2 -6 -1 -1 -2 -4 -5 -2 -0 2 2 0 2 6 3 3 4 3 4 6 9 13 10 8 6 10 14
-7 -7 -8 -8 -9 -11 -12 -3 -1 1 -0 -1 -6 -0 -8 -1 0 -0 -2 -1 -1 -3 -5 -6 -3 0 1 2 3 3 7 7 6 4 4 4 3 3 8 11 10 7 6 10 14
-8 -7 -7 -8 -8 -11 -10 -2 -3 1 -5 -3 -2 -6 -7 -1 -1 -2 -3 -1 -1 -4 -4 -4 -1 -0 -0 0 1 0 -0 5 5 4 5 4 5 6 12 13 12 8 4 10 12
-14 -12 -9 -8 -9 -11 -3 -2 -3 -4 -5 -8 -11 -7 -4 -1 -3 -3 -3 -4 -2 -2 -4 -3 -1 -2 -2 -2 -1 -2 -3 -1 2 4 5 5 5 9 10 12 10 6 6 5 7
-15 -17 -17 -14 -10 -9 -2 -3 -4 -5 -4 -5 -13 -15 -6 -3 -5 -2 -4 -4 -2 -1 -1 -2 -4 -5 -4 -4 -4 -7 -8 -7 -6 -4 5 4 4 8 8 9 8 9 7 9 9
-13 -15 -17 -19 -16 -9 -3 -3 -4 -5 -1 -2 -4 -10 -11 -7 -8 -2 -2 -3 -4 -1 -1 -1 -3 -3 -3 -4 -7 -7 -9 -8 -8 -2 -2 0 1 7 8 7 10 10 11 10 9
-11 -14 -14 -17 -14 -5 -3 -4 -4 -4 -9 -6 -8 -11 -15 -10 -10 -4 -1 -4 -3 -3 -2 0 -1 -2 -1 -2 -6 -8 -10 -9 -7 -2 -2 -2 -1 1 8 7 6 10 11 10 12
-12 -12 -15 -15 -15 -9 -4 -5 -6 -2 -5 -4 -11 -10 -10 -10 -11 -10 -2 -3 -6 -4 -3 -2 -4 -3 -3 -4 -6 -9 -8 -4 -1 -2 -0 -2 -1 2 10 7 7 7 8 8 16
-13 -13 -15 -14 -14 -3 -3 -6 -4 1 -5 -7 -10 -11 -11 -10 -10 -10 -2 -2 -1 -0 0 -1 -1 -2 -3 -5 -7 -7 -4 -1 -1 1 1 1 6 6 9 6 7 7 6 7 9
-14 -14 -15 -17 -16 -4 -4 -4 -0 -3 -5 -9 -9 -9 -9 -9 -10 -10 -1 -0 -1 -0 1 2 3 -1 -4 -5 -5 -6 -5 -0 1 3 4 3 8 9 9 8 8 6 7 15 14
-14 -15 -16 -18 -17 -7 -2 -1 -3 -2 -6 -7 -8 -8 -8 -8 -9 -9 -4 -1 -2 -1 1 1 2 -2 -3 -5 -7 -5 -3 -5 -2 0 1 3 7 8 8 9 15 15 15 17 16
-13 -11 -16 -7 -17 -3 -1 0 -3 -7 -8 -8 -6 -7 -7 -7 -10 -8 -8 -7 -2 -1 -4 -2 0 -4 -4 -4 -6 -7 -7 -4 -1 -0 1 4 11 9 10 11 15 16 15 16 15
-11 -0 -2 -7 -12 -2 -2 -1 -5 -9 -8 -7 -7 -7 -8 -7 -8 -8 -9 -8 -10 -9 -3 -3 -2 -2 -2 -2 -3 -4 -4 -3 -3 -0 1 6 10 9 10 11 12 13 14 13 15
-3 1 -2 -2 -2 -3 -3 -5 -7 -7 -8 -7 -8 -8 -9 -9 -8 -8 -7 -6 -8 -11 -3 -3 -1 0 -1 -3 -4 -4 -4 -4 -1 -3 4 7 10 8 9 12 12 14 15 14 14
-4 1 -1 -2 -2 -3 -4 -6 -7 -8 -7 -7 -8 -9 -10 -10 -10 -6 -6 -7 -9 -1 -5 -3 -1 1 -1 -3 -3 -3 -5 -3 -1 1 2 3 8 10 10 10 11 14 15 15 13
0 3 0 -1 -2 -1 -1 -1 -2 -4 -5 -8 -8 -9 -8 -7 -9 -9 -8 -9 -9 -7 -1 1 -0 -2 -0 -2 2 2 1 -1 -0 2 -0 2 11 12 11 9 11 11 11 14 9
3 3 2 3 2 2 2 2 0 -1 -5 -4 -4 -7 -7 -6 -6 -8 -9 -7 -7 -3 -4 -0 0 3 2 3 4 4 2 4 2 -0 0 1 10 10 11 10 10 8 8 12 7
3 3 2 1 0 -1 -0 2 2 0 -1 -3 -4 -5 -8 -6 -5 -5 -6 -5 -2 2 2 1 -1 5 5 4 5 5 4 5 3 3 -0 9 11 10 10 9 10 9 11 10 10
-1 -0 2 1 -3 -2 -1 3 2 4 4 3 2 -3 -4 -7 -8 -2 -0 -2 -2 3 5 8 2 6 6 6 6 6 4 5 5 4 3 7 8 11 12 13 12 11 10 7 7

GFSSW_850_dewp_009.txt.gz
Dewpoint
-9 -9 -10 -10 -11 -12 -12 -12 -13 -14 -14 -13 -14 -14 -11 -11 -14 -19 -20 -20 -18 -15 -14 -9 -16 5 6 4 2 2 7 11 12 12 10 10 11 9 9 10 10 8 13 13 17
-8 -8 -9 -10 -10 -11 -12 -12 -12 -14 -14 -14 -14 -14 -12 -10 -11 -10 -15 -20 -11 -12 -14 -9 2 5 5 3 1 1 6 8 9 9 9 10 10 10 10 11 11 12 11 14 15
-9 -10 -10 -11 -11 -11 -12 -12 -12 -13 -14 -13 -14 -14 -12 -11 0 3 -5 -15 -10 -10 -13 3 4 5 3 1 -2 2 3 6 4 7 7 9 10 9 9 10 9 14 15 15 16
-10 -11 -11 -12 -12 -13 -13 -13 -13 -13 -14 -14 -14 -14 -14 -11 6 1 -6 -9 -10 -14 -4 1 -2 -2 -2 -4 -6 -3 -0 -1 -3 -2 6 6 6 7 7 6 5 10 13 15 15
-10 -11 -11 -12 -13 -14 -14 -15 -14 -14 -14 -14 -14 -14 -14 -7 -12 2 -7 -7 -12 -14 -3 -2 -1 -0 -3 -7 -7 -6 -6 -3 -2 2 3 6 6 6 7 6 6 11 15 15 15
-10 -11 -11 -12 -12 -14 -15 -15 -16 -16 -15 -14 -15 -14 -12 -3 1 -1 -3 -7 -11 -13 -2 -0 -1 -3 -5 -5 -4 -4 -2 -0 -1 2 3 5 6 6 8 7 11 14 16 16 15
-10 -11 -10 -10 -11 -12 -13 -15 -16 -17 -16 -15 -15 -14 -13 -16 -3 -1 -5 -6 -9 -12 -1 -1 -3 -3 -6 -4 -2 0 1 -0 1 2 2 3 6 3 9 15 17 17 17 16 16
-10 -10 -10 -9 -9 -10 -11 -12 -16 -18 -17 -16 -14 -13 -15 -9 -1 -0 -3 -6 -7 -13 -3 -3 -3 -4 -5 -2 0 1 2 5 1 3 3 2 6 9 11 16 16 16 16 16 15
-9 -9 -9 -9 -8 -10 -11 -10 -6 -8 -13 -15 -10 -10 -11 -2 -1 -0 -1 -4 -2 -2 -2 -4 -5 -3 -1 2 2 1 1 3 4 3 3 3 5 10 14 15 15 16 16 15 13
-8 -8 -9 -9 -9 -11 -11 -5 -1 2 -0 -1 -2 -6 -12 -2 -0 -0 -0 -2 -1 -2 -4 -5 -3 -0 0 2 -2 2 5 3 3 3 3 3 7 11 13 13 14 15 14 12 8
-12 -10 -9 -9 -9 -10 -6 -4 -4 -4 -6 -4 -3 -9 -12 -2 -0 -0 0 -1 -1 -4 -5 -4 -2 -1 -0 0 1 1 1 1 1 -0 4 4 6 9 11 11 10 8 7 6 6
-15 -16 -13 -11 -9 -10 -2 -2 -2 -3 -5 -8 -8 -6 -7 -7 -3 -2 -1 -1 -1 -1 -4 -4 -2 -3 -3 -2 -0 -0 -0 -2 -3 -1 4 4 10 12 13 12 10 8 7 8 10
-14 -15 -18 -18 -15 -11 -3 -3 -5 -5 -4 -7 -10 -12 -8 -9 -4 -3 -2 -3 -2 -1 -2 -2 -4 -4 -3 -4 -3 -4 -5 -8 -7 -6 3 4 8 9 8 11 10 8 7 7 9
-14 -16 -16 -18 -19 -13 -3 -3 -4 -5 -4 -6 -5 -10 -12 -8 -6 -2 -2 -3 -3 -1 -1 -1 -2 -2 -2 -2 -4 -4 -7 -8 -8 -5 -4 0 1 8 8 10 9 8 8 7 9
-14 -14 -15 -16 -19 -9 -3 -3 -2 -4 -9 -10 -7 -10 -11 -7 -8 -5 -3 -3 -2 -3 -2 -1 -1 -1 -1 -1 -5 -3 -6 -9 -8 -3 -2 -3 -2 -2 7 8 10 9 8 7 8
-13 -13 -15 -15 -18 -14 -4 -5 -6 -8 -8 -7 -9 -9 -9 -10 -10 -3 -3 -3 -4 -4 -4 -3 -3 -3 -2 -3 -3 -4 -7 -4 -1 -2 -1 -3 -1 1 10 8 6 8 8 9 8
-12 -12 -15 -15 -15 -7 -5 -6 -6 -4 -9 -6 -9 -10 -10 -9 -9 -6 -2 -2 -1 -2 -1 -2 -2 -3 -3 -2 -3 -7 -5 -2 -2 -1 -2 2 5 5 6 8 7 7 8 8 7
-13 -14 -15 -17 -15 -3 -4 -6 -5 -9 -4 -8 -9 -9 -9 -10 -10 -8 -2 -0 -2 -1 1 2 1 -1 -3 -2 -2 -6 -6 -2 -2 1 0 2 5 7 9 8 9 7 8 9 14
-14 -15 -17 -18 -16 -4 -4 -6 -8 -5 -5 -7 -8 -7 -8 -9 -10 -9 -2 -2 -2 -1 1 2 2 -1 -3 -4 -5 -4 -3 -6 -2 -1 0 2 6 8 8 14 14 11 16 16 15
-14 -14 -11 -15 -16 -5 -3 -4 -4 -5 -8 -8 -6 -7 -7 -8 -9 -8 -6 -6 -3 -2 -3 -1 0 -4 -5 -4 -4 -5 -5 -2 -2 -0 -0 1 10 9 9 14 16 15 15 16 9
-12 -1 -2 -7 -13 -2 -1 -2 -4 -8 -8 -7 -7 -7 -8 -9 -9 -9 -9 -9 -5 -5 -2 -2 -3 -3 -4 -2 -2 -4 -4 -3 -3 -1 1 3 7 7 9 11 16 15 16 11 4
-6 -0 -3 -13 -6 -3 -3 -4 -7 -7 -10 -8 -7 -7 -7 -9 -10 -9 -8 -7 -9 -6 -0 -2 -2 1 -2 -3 -4 -6 -5 -4 -0 -2 3 5 5 9 8 9 12 15 15 14 11
-3 1 -2 -3 -3 -3 -4 -5 -6 -8 -7 -8 -7 -8 -9 -8 -9 -9 -6 -8 -11 -8 -6 -4 -2 -2 -3 -3 -4 -3 -4 -3 -2 -3 3 3 2 11 11 12 13 15 14 14 14
2 2 0 -0 0 -1 1 1 -1 -3 -4 -6 -7 -8 -7 -7 -9 -8 -9 -11 -11 -9 -2 -3 -2 -4 -3 -1 -0 3 3 -2 -2 1 0 1 -1 12 11 11 13 15 14 14 14
3 3 2 2 1 1 1 2 2 1 -2 -4 -3 -5 -4 -5 -7 -7 -9 -7 -7 -3 1 -2 1 -0 -1 -2 3 4 4 3 1 -1 1 0 4 6 10 11 12 13 15 15 14
2 2 0 1 1 -2 -1 2 2 4 1 -0 3 4 1 -5 -6 -7 -7 -5 -4 -1 3 4 -2 4 4 4 4 4 3 4 4 3 1 3 5 8 9 10 10 10 12 14 11
-1 0 2 -0 -0 -1 -0 3 3 4 4 3 4 4 -0 -0 4 -1 -7 -3 -2 1 4 7 2 3 2 6 3 2 3 4 5 5 4 6 5 10 10 10 9 7 9 13 8

GFSSW_850_dewp_015.txt.gz
Dewpoint
-9 -9 -10 -10 -11 -11 -12 -13 -13 -13 -14 -15 -16 -15 -16 -15 -15 -17 -20 -21 -19 -13 -11 -14 -17 -11 5 3 2 2 7 11 10 8 4 8 8 10 10 10 10 12 13 13 14
-9 -10 -11 -11 -12 -12 -13 -14 -14 -14 -14 -15 -16 -16 -16 -15 -13 -6 -6 -19 -19 -14 -13 -11 -13 1 4 3 1 0 6 8 7 7 4 6 9 9 9 10 11 11 11 12 14
-10 -10 -11 -12 -12 -13 -14 -15 -15 -15 -15 -15 -15 -16 -16 -14 0 -2 -5 -19 -15 -15 -14 -8 2 2 2 0 -1 1 3 4 2 5 6 3 7 9 9 10 9 10 14 15 15
-10 -10 -11 -11 -12 -13 -14 -15 -16 -16 -16 -16 -15 -16 -16 -5 4 -5 -11 -16 -11 -12 -9 1 2 -0 -2 -3 -6 -2 -3 0 -4 -0 5 4 7 8 9 7 7 7 7 11 14
-10 -11 -11 -11 -12 -12 -13 -14 -15 -16 -17 -17 -16 -16 -16 -13 -9 1 -8 -11 -12 -13 -1 1 -1 -0 -4 -5 -5 -6 -6 -3 -3 -1 -0 2 5 7 8 8 9 7 9 10 10
-10 -11 -11 -12 -12 -12 -11 -12 -14 -16 -17 -18 -17 -16 -14 -9 -0 -0 -4 -8 -11 -12 0 -1 -0 -2 -3 -5 -4 -4 -1 -1 -0 1 3 5 5 6 8 7 11 9 10 13 9
-10 -11 -12 -12 -12 -12 -11 -12 -14 -15 -16 -17 -17 -16 -15 -17 1 -2 -3 -5 -10 -14 -1 -1 -1 -2 -3 -4 -2 0 -1 -1 1 2 2 4 5 7 9 12 13 14 15 12 16
-10 -11 -11 -12 -13 -12 -11 -12 -14 -10 -7 -13 -16 -15 -15 -12 -6 -1 -3 -6 -11 -6 -2 -1 -2 -4 -3 -2 -2 -1 -1 -0 -0 2 3 3 2 5 14 14 14 15 16 15 17
-10 -10 -11 -12 -13 -13 -11 -13 -12 -5 -1 -6 -12 -11 -11 -7 -4 -2 -3 -7 -11 -9 -1 -1 -4 -2 -0 -2 -5 -1 -2 1 2 1 -0 3 2 10 15 15 15 15 16 16 17
-13 -13 -13 -12 -13 -13 -12 -13 -11 -6 -2 -1 -5 -6 -10 -2 -2 -0 -6 -5 -11 -8 -3 -4 -2 -1 1 -2 -10 -5 -0 1 2 -1 -2 0 2 6 14 15 15 16 17 17 16
-14 -15 -16 -15 -14 -12 -11 -10 -9 -7 -8 -5 -5 -10 -9 -1 0 -0 -4 -2 -1 -2 -3 -3 -4 -4 -3 1 -1 1 -0 1 -0 -2 -0 2 4 8 12 14 15 16 16 16 15
-14 -15 -17 -18 -16 -12 -7 -6 -5 -5 -4 -9 -9 -7 -6 -3 -2 -0 -2 -0 -1 -1 -4 -3 -3 -4 -4 -0 -0 -1 -1 -1 -3 -5 2 3 4 7 11 12 13 14 16 16 15
-14 -15 -17 -18 -19 -13 -4 -5 -4 -4 -4 -7 -8 -8 -10 -6 -6 -1 -2 -1 -0 -1 -2 -1 -4 -4 -3 -2 -1 -2 -1 -2 -3 -6 1 5 3 7 9 11 12 12 13 14 13
-14 -15 -17 -18 -18 -14 -3 -4 -3 -4 -5 -10 -8 -8 -10 -8 -7 -3 -1 -2 -1 -0 -1 -1 -3 -3 -2 -1 -2 0 -3 -3 -3 -3 -5 -0 -4 3 4 7 9 11 12 11 10
-12 -15 -16 -18 -17 -14 -5 -3 -4 -4 -5 -11 -7 -8 -9 -7 -5 -3 -1 -3 -1 -1 -1 -3 -1 -1 0 -1 -2 -0 -4 -3 -4 -4 -1 -1 -3 -1 4 5 6 9 11 11 9
-11 -13 -15 -17 -17 -18 -6 -4 -5 -11 -7 -7 -8 -9 -8 -8 -6 -3 -1 -3 -3 -2 -2 -3 -3 -3 -4 -3 -3 -4 -4 -3 -1 -2 -2 -1 -2 -2 2 5 7 7 10 11 9
-10 -12 -15 -17 -17 -16 -6 -5 -10 -10 -10 -6 -8 -9 -9 -8 -6 -2 -2 -1 -1 2 2 -1 -2 -4 -4 -3 -3 -3 -0 1 -2 -2 -3 3 3 1 3 5 7 7 8 10 9
-10 -14 -16 -16 -18 -12 -4 -8 -8 -13 -11 -8 -9 -9 -8 -9 -8 -1 -1 0 -2 -1 0 -2 -5 -2 -2 -3 -3 -1 -0 -0 1 -2 -2 3 2 0 6 8 9 9 8 9 10
-14 -16 -17 -17 -17 -7 -5 -8 -11 -11 -6 -7 -8 -7 -7 -9 -9 -5 -1 -1 -1 -1 -0 1 -1 -2 -2 -3 -4 -2 -0 -3 2 2 0 -1 1 3 9 10 9 8 8 9 12
-15 -11 -7 -16 -17 -6 -4 -6 -9 -8 -7 -8 -5 -7 -6 -7 -7 -7 -3 -5 -3 -2 -2 -0 -2 -4 -5 -4 -4 -2 -3 -0 -0 4 3 1 4 2 7 9 9 9 8 12 16
-11 -1 -2 -13 -12 -4 -5 -5 -5 -5 -10 -9 -6 -6 -6 -6 -8 -7 -6 -7 -5 -3 -2 -2 -1 -5 -4 -3 -2 -2 -2 -1 -1 1 0 0 -0 6 8 9 11 10 11 13 15
-1 -1 -5 -7 -3 -2 -3 -3 -6 -7 -10 -9 -7 -6 -6 -6 -7 -8 -8 -7 -9 -5 -2 -1 0 1 -3 -4 -3 -3 -1 1 0 4 3 3 -1 2 8 7 12 11 13 15 15
1 -2 -4 -3 -5 -2 -4 -6 -6 -6 -6 -7 -6 -7 -7 -5 -3 -7 -8 -8 -10 -6 -1 -0 2 1 -1 -3 -2 -1 -1 -1 3 4 7 3 0 3 9 9 13 13 14 14 11
2 0 -2 -2 0 -0 2 -0 -4 -1 -3 -4 -4 -4 -2 -3 -5 -4 -7 -9 -9 -5 2 -2 3 3 -4 -3 -2 2 -1 -1 1 2 4 1 1 2 5 10 13 15 15 14 9
2 3 2 -1 0 0 1 2 2 2 2 1 -2 4 4 1 -3 -4 -6 -6 -8 -0 0 1 4 2 -0 -3 -4 -2 3 -1 2 4 2 4 3 5 5 8 11 14 16 15 11
2 2 0 1 0 -1 1 4 3 3 3 2 3 4 5 2 -3 -0 3 -1 -3 -1 3 5 5 5 4 4 -2 -2 -2 2 2 1 2 3 5 3 8 11 12 14 16 16 15
-3 -2 0 -1 0 -1 2 3 3 3 2 3 3 5 4 2 3 4 5 4 3 2 3 7 7 6 2 5 4 5 2 3 3 4 3 6 6 8 9 10 13 15 15 16 15

GFSSW_850_dewp_021.txt.gz
Dewpoint
-11 -12 -12 -13 -13 -14 -15 -15 -16 -16 -16 -16 -16 -17 -17 -17 -17 -17 -4 -11 -15 -18 -14 -3 -6 -9 -4 4 3 3 5 4 2 1 1 -0 1 2 5 7 8 8 9 11 14
-11 -12 -13 -13 -14 -15 -15 -16 -16 -17 -17 -18 -17 -17 -17 -17 -9 1 -2 -10 -20 -19 -1 -7 -12 -10 -0 3 2 2 5 2 -1 -2 -1 -1 -1 1 4 6 9 10 11 13 14
-11 -12 -12 -14 -14 -15 -15 -16 -16 -17 -18 -19 -18 -18 -18 -9 3 3 -9 -16 -17 -16 -3 -7 -8 -5 -1 2 1 1 1 -2 -4 -3 -4 -2 -1 1 1 4 6 9 12 14 14
-11 -12 -13 -13 -14 -15 -15 -16 -17 -17 -18 -19 -19 -19 -18 -3 3 -0 -14 -14 -15 -6 -5 -5 -6 -7 -3 2 0 1 -2 -3 -4 -4 -4 -3 -3 -0 1 3 6 8 12 14 14
-11 -12 -13 -13 -14 -15 -16 -16 -16 -17 -18 -19 -19 -19 -18 1 1 -3 -11 -13 -11 -8 -6 -6 -8 -7 -4 -1 -1 0 -2 -2 -2 -3 -2 -3 -2 -1 -0 3 7 8 12 13 13
-11 -12 -13 -14 -14 -15 -16 -16 -17 -17 -18 -19 -19 -20 -4 -6 2 -0 -3 -5 -5 -8 -5 -6 -7 -5 -5 -3 -2 -2 -2 -1 -2 -2 -3 -2 -2 -0 3 5 6 9 11 12 13
-11 -12 -13 -14 -15 -15 -16 -16 -17 -17 -17 -16 -19 -19 -3 -7 1 1 -3 -5 -7 -9 -5 -3 -4 -8 -6 -4 -3 -3 -1 -2 -3 -3 -4 -4 -2 1 2 7 6 9 10 11 13
-11 -12 -13 -14 -15 -16 -17 -17 -17 -18 -15 -12 -16 -18 -6 -8 -0 -2 -3 -5 -7 -10 -4 -3 -4 -7 -6 -6 -5 -2 -3 -2 -3 -4 -3 -6 1 -0 4 6 7 9 10 11 13
-12 -13 -13 -14 -15 -16 -17 -16 -16 -16 -14 -9 -4 -2 -6 -12 -6 -1 -3 -6 -8 -7 -4 -3 -5 -7 -9 -10 -10 -8 -6 -4 -6 -5 -5 -6 -3 -1 4 6 7 11 11 13 14
-14 -14 -14 -15 -15 -16 -16 -16 -16 -16 -13 -11 -7 -0 -6 -11 -8 -2 -2 -8 -11 -9 -6 -4 -7 -9 -11 -11 -10 -10 -10 -11 -8 -6 -5 -7 -5 -6 0 5 7 11 12 13 15
-14 -15 -16 -16 -16 -16 -16 -8 2 3 2 -5 -5 -11 -9 -3 -3 -4 -3 -8 -7 -9 -6 -6 -8 -10 -11 -10 -8 -7 -9 -9 -10 -9 -5 -6 -5 -6 -2 1 6 10 13 13 14
-15 -16 -16 -17 -17 -16 -13 -2 -3 -4 -6 -9 -9 -7 -6 -4 -6 -6 -6 -7 -8 -7 -7 -5 -9 -10 -9 -10 -9 -10 -8 -8 -8 -6 -6 -7 -5 -6 -5 1 4 9 13 13 14
-15 -16 -17 -18 -19 -16 -3 -3 -5 -4 -6 -10 -10 -11 -10 -5 -6 -6 -7 -7 -6 -6 -6 -7 -7 -8 -9 -10 -8 -9 -9 -8 -6 -5 -7 -7 -4 -5 -5 0 5 6 10 12 14
-14 -16 -17 -19 -16 -8 -4 -2 -5 -3 -5 -9 -11 -12 -12 -7 -6 -4 -7 -5 -4 -4 -7 -7 -9 -8 -9 -8 -8 -7 -7 -7 -7 -5 -5 -5 -6 -3 -4 -1 4 6 8 10 14
-13 -15 -16 -19 -5 -9 -1 -5 -4 -3 -3 -10 -11 -9 -12 -9 -10 -6 -5 -4 -2 -4 -3 -6 -7 -6 -7 -8 -9 -5 -4 -6 -5 -5 -6 -6 -5 -5 -4 -5 0 1 7 8 13
-14 -14 -15 -11 -18 -7 -8 -5 -3 -3 -7 -9 -10 -11 -11 -11 -9 -7 -3 -3 -3 -3 -4 -5 -7 -7 -8 -7 -6 -6 -5 -5 -5 -6 -5 -6 -4 -7 -3 1 -2 2 6 9 11
-15 -14 -15 -16 -7 -7 -7 -5 -4 -5 -11 -9 -9 -11 -11 -10 -10 -4 -2 -1 -1 0 -1 -5 -5 -7 -7 -6 -6 -6 -4 -2 -2 -2 -3 -2 -4 -5 -5 -3 -1 1 6 9 10
-15 -14 -15 -17 -5 -10 -5 -4 -1 -10 -11 -9 -10 -11 -11 -12 -9 -5 -2 -1 -4 -5 -4 -2 -3 -6 -6 -6 -5 -4 -4 -3 0 -2 1 -2 -2 1 -2 -2 2 4 6 9 10
-14 -6 -6 -4 -11 -6 -4 -3 -5 -8 -12 -10 -10 -8 -9 -11 -10 -5 -3 -3 -4 -5 -1 -4 -5 -8 -7 -8 -8 -6 -3 -7 -4 -5 -3 -5 -6 -5 -4 -1 2 4 6 8 9
-14 -4 -4 -2 -5 -7 -5 -4 -9 -13 -11 -11 -8 -9 -7 -8 -9 -6 -4 -6 -5 -6 -6 -4 -2 -6 -7 -8 -8 -6 -5 -2 -4 1 1 -2 -0 -1 2 2 4 5 6 7 8
-5 -4 -2 -7 -7 -8 -8 -7 -9 -12 -11 -11 -11 -6 -7 -8 -9 -8 -6 -7 -8 -6 -7 -6 -3 -5 -7 -5 -6 -3 -3 -4 -6 -2 3 4 5 0 -1 -0 4 4 6 8 9
-1 -5 -4 -6 -9 -11 -10 -10 -10 -12 -12 -13 -9 -10 -8 -7 -7 -7 -8 -7 -9 -9 -6 -7 -4 -2 -4 -8 -9 -8 -4 -3 -1 1 -1 0 3 -1 -3 -0 -1 4 6 10 12
0 -5 -5 -6 -9 -11 -11 -10 -10 -12 -12 -14 -13 -9 -8 -6 -4 -8 -8 -10 -10 -8 -6 -6 -4 -1 -1 -6 -6 -6 -8 -6 -2 1 4 5 2 -0 0 0 3 5 7 12 12
2 -5 -6 -8 -8 -4 -7 -5 -8 -13 -13 -13 -12 -10 -7 -6 -4 -5 -7 -9 -10 -9 -5 -1 -3 -1 -3 0 -1 -2 -5 -6 -3 1 -1 -2 -1 2 1 1 7 7 9 13 14
-1 -2 -1 -7 -8 -7 -7 -7 -9 -7 -9 -8 -9 -9 -9 -5 -6 -4 -8 -9 -10 -7 -4 -2 2 -1 -2 -6 -7 -5 -6 -5 -4 -3 0 0 6 7 5 4 7 9 12 13 14
1 0 -6 -3 -0 -4 -2 -3 -6 -9 -5 -7 -7 -10 -11 -6 -6 -5 -7 -6 -6 -7 -5 -2 3 1 0 -4 -7 -6 -7 -7 -5 -4 -2 -2 4 9 5 7 5 10 13 13 13
-2 -0 1 -3 -4 -3 -4 -5 -4 -6 -4 -2 -5 -7 -4 -4 -4 -0 1 2 2 2 -0 1 2 2 3 -3 -6 -1 -4 -6 -6 -4 -3 -0 -0 3 3 8 8 10 13 13 13

GFSSW_850_dewp_024.txt.gz
Dewpoint
-12 -12 -13 -14 -14 -15 -15 -15 -16 -17 -17 -18 -18 -17 -17 -17 -18 -18 -1 -7 -9 -17 -18 -7 -6 -8 -9 -7 2 2 9 10 0 1 -0 -0 3 1 2 5 7 7 9 12 14
-12 -12 -13 -14 -15 -15 -15 -15 -16 -17 -18 -18 -19 -18 -18 -16 -10 1 -2 -9 -20 -19 -7 -5 -11 -12 -9 -1 2 6 12 9 -2 -3 -2 -2 -2 -0 5 8 10 10 11 13 14
-12 -12 -13 -13 -14 -15 -16 -16 -17 -17 -18 -18 -19 -19 -18 -9 5 4 -9 -16 -16 -18 -4 -6 -9 -9 -5 -0 1 5 10 6 -3 -5 -5 -4 -1 -1 3 9 9 11 12 13 13
-11 -12 -13 -14 -14 -15 -16 -16 -17 -18 -18 -19 -19 -19 -19 -5 5 -1 -14 -16 -17 -16 -3 -6 -7 -7 -4 0 -0 4 2 -4 -5 -5 -4 -4 -4 -3 -0 5 9 11 12 13 13
-12 -12 -13 -14 -15 -15 -16 -17 -17 -17 -18 -19 -19 -20 -19 3 3 -5 -13 -17 -15 -4 -7 -7 -8 -8 -6 -2 -2 -0 -4 -5 -4 -4 -3 -3 -3 -1 -2 5 6 11 13 13 13
-12 -12 -13 -14 -15 -16 -16 -17 -17 -18 -18 -18 -19 -20 -12 -2 3 -5 -5 -10 -3 -8 -7 -7 -7 -6 -5 -4 -3 -2 -2 -3 -3 -3 -3 -3 0 -1 2 2 6 10 12 13 13
-12 -13 -13 -14 -15 -16 -17 -17 -18 -18 -18 -17 -17 -20 -3 -6 0 0 -3 -4 -7 -9 -7 -5 -5 -6 -8 -5 -4 -3 -3 -4 -3 -4 -6 -1 2 2 0 4 6 8 10 12 13
-12 -13 -14 -14 -15 -16 -18 -18 -18 -18 -18 -17 -15 -19 -1 -6 -3 -1 -3 -5 -8 -11 -6 -4 -5 -7 -8 -6 -6 -6 -4 -2 -5 -3 -5 -7 6 -1 -0 3 5 7 9 10 13
-13 -13 -14 -15 -15 -16 -18 -18 -19 -19 -18 -17 -1 2 -5 -5 -9 -2 -4 -6 -8 -10 -6 -5 -6 -7 -9 -9 -8 -7 -4 -4 -1 -6 -6 -7 -5 -2 -0 2 5 8 9 10 13
-14 -14 -15 -15 -16 -16 -18 -19 -19 -19 -14 -17 -16 0 -3 -7 -11 -4 -4 -6 -9 -10 -8 -7 -7 -8 -10 -10 -9 -8 -9 -11 -4 -8 -5 -6 -7 -7 -2 -1 5 9 10 11 14
-14 -15 -16 -16 -16 -17 -18 -16 1 4 -4 -5 -5 -12 -9 -6 -8 -4 -4 -7 -10 -11 -8 -8 -8 -10 -12 -11 -9 -8 -8 -9 -10 -10 -7 -6 -6 -6 -6 -3 0 11 12 12 14
-15 -16 -16 -17 -17 -17 -17 -2 -4 -5 -5 -6 -6 -7 -9 -5 -7 -7 -5 -8 -9 -8 -10 -6 -9 -11 -10 -9 -11 -11 -11 -10 -10 -10 -5 -6 -7 -7 -8 -2 1 9 13 12 13
-15 -16 -17 -18 -18 -18 -8 -3 -4 -7 -7 -11 -12 -12 -10 -9 -6 -9 -6 -9 -8 -9 -8 -7 -9 -8 -9 -12 -12 -11 -10 -9 -7 -7 -7 -6 -5 -3 -7 -2 -0 -1 12 12 13
-15 -16 -18 -19 -18 -5 -9 -3 -7 -5 -6 -11 -11 -12 -13 -11 -9 -7 -7 -9 -7 -7 -8 -8 -10 -8 -8 -11 -10 -8 -8 -8 -9 -7 -4 -6 -2 0 -2 0 1 3 7 11 14
-16 -16 -17 -19 -5 -6 -3 -5 -6 -5 -3 -15 -11 -14 -14 -11 -11 -8 -6 -8 -5 -5 -5 -6 -8 -8 -10 -10 -11 -9 -5 -4 -8 -6 -5 -7 -6 3 -0 -3 3 2 6 9 14
-18 -17 -17 -10 -18 -7 -8 -7 -5 -4 -6 -10 -11 -11 -13 -13 -12 -9 -6 -7 -5 -3 -5 -5 -6 -9 -9 -10 -10 -9 -6 -6 -6 -6 -2 -3 -6 -3 4 5 -1 1 6 11 13
-18 -18 -17 -12 -5 -7 -8 -7 -4 -4 -13 -10 -10 -11 -13 -12 -12 -8 -4 -4 -2 0 -0 -4 -6 -8 -9 -7 -7 -7 -5 -2 -2 -2 1 5 1 3 -3 -1 -2 2 7 10 12
-18 -18 -18 -19 -6 -6 -7 -6 -2 -9 -10 -14 -12 -13 -12 -13 -13 -9 -4 -3 -4 -4 -4 -2 -3 -7 -8 -7 -6 -5 -4 -2 3 -1 4 3 6 4 -3 -2 -0 0 7 9 11
-19 -6 -17 -12 -18 -6 -6 -3 -4 -6 -13 -11 -11 -10 -11 -13 -12 -11 -4 -4 -4 -5 -1 -3 -3 -8 -8 -8 -8 -7 -4 -8 -3 -3 -4 -6 1 1 -2 -3 1 2 7 9 10
-16 -2 -5 -5 -5 -6 -6 -3 -7 -11 -12 -12 -9 -10 -9 -11 -11 -10 -5 -6 -5 -6 -6 -3 -2 -7 -7 -8 -8 -7 -7 -4 -2 3 3 -3 6 12 9 10 3 5 7 8 10
-13 -2 -2 -4 -5 -7 -6 -7 -8 -10 -11 -11 -10 -8 -10 -9 -11 -10 -7 -7 -8 -6 -7 -6 -3 -4 -6 -5 -5 -6 -3 -5 -6 -2 1 3 10 11 10 11 6 4 5 8 9
3 -2 -2 -8 -9 -11 -9 -10 -11 -10 -11 -12 -11 -9 -7 -7 -8 -9 -8 -8 -9 -8 -5 -6 -5 -1 -4 -7 -8 -8 -6 -4 0 3 1 3 4 4 7 5 4 2 4 7 9
4 -2 -4 -8 -10 -11 -11 -12 -12 -10 -10 -11 -12 -11 -9 -5 -4 -7 -7 -9 -9 -9 -0 -3 -3 -2 -1 -4 -7 -7 -7 -7 -4 4 6 7 12 7 3 2 -2 2 5 10 11
4 -5 -6 -8 -9 -6 -5 -10 -10 -11 -12 -12 -12 -12 -9 -6 -6 -1 -7 -9 -10 -10 -6 -3 1 -1 -2 -1 1 -0 -3 -4 -4 0 0 -1 5 6 9 10 11 7 9 12 12
2 -1 -3 -8 -11 -8 -5 -6 -7 -7 -12 -11 -11 -10 -8 -4 -5 -3 -5 -8 -10 -8 -8 -4 2 -0 -3 -5 -5 -4 -2 -5 -5 -4 -1 -1 4 8 10 10 9 10 12 13 14
-2 1 1 -4 -2 -5 -5 -4 -6 -7 -9 -8 -7 -9 -9 -7 -5 -5 -6 -5 -7 -8 -4 -2 3 1 1 -2 -4 -5 -7 -7 -7 -6 -4 -5 -0 6 9 5 9 9 12 14 14
-2 -1 -1 -2 -5 -2 -4 -6 -5 -5 -9 -6 -5 -7 -8 -6 -4 -1 0 1 2 3 2 4 3 4 3 -1 -2 0 -5 -7 -6 -7 -6 -2 4 10 12 12 11 10 13 13 14

GFSSW_850_dewp_027.txt.gz
Dewpoint
-12 -13 -14 -14 -15 -15 -16 -16 -16 -17 -17 -18 -18 -18 -18 -18 -18 -19 -2 -5 -7 -15 -18 -12 -8 -10 -9 -9 -8 3 12 14 10 8 5 2 6 7 7 8 10 11 12 13 14
-12 -13 -14 -14 -15 -15 -16 -16 -17 -17 -18 -18 -19 -19 -18 -16 -10 -13 -2 -2 -12 -20 -14 -0 -6 -10 -11 -11 3 8 10 9 7 0 -2 -2 6 6 5 4 9 13 13 13 14
-12 -13 -13 -14 -15 -15 -16 -16 -17 -17 -18 -18 -19 -19 -19 -12 4 4 2 -16 -17 -18 -4 -7 -7 -7 -7 -6 4 3 4 1 2 -4 -5 -3 5 4 7 7 6 13 14 14 14
-12 -13 -13 -14 -15 -15 -16 -17 -17 -17 -18 -18 -19 -20 -19 -9 7 -2 -16 -17 -19 -18 -7 -5 -7 -7 -6 -3 3 4 1 1 -3 -5 -3 -3 -3 6 7 7 5 12 13 14 14
-12 -13 -14 -14 -15 -16 -16 -17 -17 -18 -18 -18 -19 -20 -19 -1 4 -1 -14 -17 -14 -8 -8 -7 -7 -8 -5 -4 -0 -1 2 0 -4 -4 -4 -3 -0 0 7 8 11 13 13 13 14
-12 -13 -14 -14 -15 -16 -17 -17 -18 -18 -18 -18 -18 -20 -19 3 1 -2 -10 -12 -7 -7 -8 -7 -5 -6 -6 -5 -3 -2 -3 -3 -3 -3 -2 0 2 3 7 9 11 12 13 13 13
-12 -13 -14 -15 -15 -16 -17 -18 -18 -18 -18 -18 -17 -19 -19 -13 1 -1 -10 -5 -6 -9 -10 -6 -5 -5 -6 -6 -5 -3 -3 -3 -3 -3 -2 -3 1 2 5 11 12 13 13 13 13
-13 -13 -14 -15 -16 -16 -17 -18 -18 -19 -18 -19 -17 -11 -14 -6 -5 -1 -2 -4 -6 -10 -10 -5 -4 -5 -6 -8 -7 -6 -5 -1 -0 -2 -3 -2 2 2 2 7 11 12 13 13 13
-13 -14 -15 -15 -16 -17 -17 -18 -19 -19 -19 -19 -0 5 2 -4 -6 -5 -3 -4 -7 -9 -10 -6 -7 -7 -7 -6 -6 -6 -4 -3 2 -2 -2 -8 0 1 1 4 8 10 10 13 13
-14 -15 -15 -16 -16 -17 -18 -19 -19 -17 -17 -15 -15 -1 -5 -4 -6 -8 -4 -5 -7 -10 -9 -7 -7 -5 -6 -6 -4 -5 -5 -4 4 1 -3 -6 -5 0 2 4 8 9 11 13 13
-15 -15 -16 -16 -17 -17 -18 -14 -1 2 -2 -0 -3 -10 -7 -7 -9 -7 -4 -5 -8 -11 -8 -8 -5 -4 -6 -8 -9 -9 -9 -7 -7 -8 -7 -6 -5 -4 -3 1 10 10 11 13 13
-15 -16 -17 -17 -17 -18 -18 -2 -4 -6 -6 -6 -5 -4 -5 -7 -6 -6 -4 -6 -8 -6 -8 -7 -4 -7 -8 -9 -10 -11 -10 -7 -8 -6 -5 -5 -4 -5 -4 -1 11 11 12 14 14
-16 -17 -18 -18 -18 -17 -8 -6 -4 -7 -6 -8 -11 -9 -7 -8 -6 -7 -7 -5 -7 -5 -6 -6 -5 -8 -8 -9 -10 -11 -9 -8 -6 -6 -8 -5 -0 -1 -4 1 12 12 12 13 14
-16 -17 -18 -19 -18 -6 -8 -3 -7 -6 -2 -7 -11 -12 -10 -10 -11 -9 -8 -6 -8 -6 -7 -6 -8 -7 -7 -7 -11 -8 -6 -7 -7 -6 -2 -3 -0 -1 2 3 4 13 12 14 15
-17 -18 -18 -19 -8 -6 -6 -5 -7 -4 3 -10 -13 -12 -12 -12 -11 -11 -8 -7 -6 -6 -5 -3 -7 -7 -7 -9 -10 -7 -6 -3 -3 -5 -4 -2 -1 0 2 7 8 10 12 15 15
-19 -19 -18 -17 -18 -8 -9 -9 -5 -1 2 -10 -11 -13 -14 -14 -12 -12 -7 -8 -9 -6 -3 -4 -6 -7 -8 -10 -10 -8 -6 -4 -3 -4 -0 2 1 4 3 7 9 8 7 15 15
-19 -20 -19 -16 -8 -6 -7 -7 -1 1 -9 -11 -9 -12 -13 -12 -13 -11 -4 -5 -3 -0 2 0 -4 -7 -8 -7 -7 -6 -3 2 2 3 4 2 3 7 3 5 6 5 14 14 16
-18 -21 -21 -20 -14 -6 -6 -3 2 -5 -8 -11 -10 -10 -9 -12 -12 -12 -3 -2 -4 -2 1 3 1 -5 -8 -7 -3 -2 -3 2 3 3 3 2 3 6 4 4 6 11 12 14 16
-20 -14 -14 -22 -18 -6 -5 -0 -0 -2 -10 -10 -11 -8 -9 -11 -12 -11 -4 -2 -3 -4 1 2 2 -4 -7 -7 -6 -5 -3 -3 -1 -1 1 0 6 4 8 7 5 6 9 14 14
-18 -15 -5 -5 -13 -11 -3 -1 -4 -8 -10 -10 -6 -9 -6 -10 -12 -10 -5 -5 -4 -4 -4 -2 3 -6 -7 -8 -8 -6 -4 -3 1 4 5 4 8 9 11 9 8 7 6 12 14
-9 1 -5 -4 -7 -6 -2 -5 -7 -8 -8 -9 -8 -6 -5 -5 -8 -9 -8 -6 -6 -6 -5 -4 1 1 -3 -4 -3 -3 -3 -2 -3 -1 2 4 6 8 10 10 10 9 9 12 13
-6 3 -2 -5 -4 -6 -5 -9 -11 -10 -11 -11 -9 -8 -5 -3 -0 -7 -6 -5 -9 -7 -3 -3 -0 2 0 -2 -5 -4 -3 1 5 3 5 5 8 7 8 9 9 10 13 12 12
1 3 -3 -7 -5 -6 -8 -11 -12 -12 -11 -10 -9 -10 -9 -4 1 2 -4 -9 -8 -2 1 0 1 1 -0 -1 -2 -0 -2 -6 -1 4 2 5 9 7 9 9 11 12 13 12 12
2 4 -4 -5 -8 -6 -3 -2 -4 -12 -11 -11 -8 -9 -7 -4 -3 -0 -1 -8 -9 -5 -7 -1 4 5 1 2 0 -0 -0 -2 -1 3 2 2 8 8 9 6 4 6 6 12 13
3 4 0 -1 -5 -6 -5 -3 -3 -6 -10 -11 -4 -7 -7 -2 1 -3 -3 -3 -9 -8 -7 1 3 3 1 -1 -3 -2 -1 -1 1 2 2 -1 8 10 9 5 6 2 8 10 14
1 -1 -1 0 -1 -5 -1 -4 -3 -4 -6 -8 -5 -6 -6 -2 -2 4 5 6 5 -3 -5 -1 4 2 4 1 -1 0 -1 -1 -3 -4 -4 6 11 10 10 5 5 6 6 9 13
-2 -3 -1 -0 -0 -1 -1 -2 -5 -5 -4 -7 -7 -3 -3 4 2 0 -1 -0 3 4 7 3 5 4 4 3 3 4 1 1 2 3 3 -0 9 10 10 11 8 3 2 6 12

GFSSW_850_dewp_030.txt.gz
Dewpoint
-13 -13 -14 -14 -15 -15 -16 -16 -17 -17 -18 -18 -19 -19 -19 -18 -18 -19 -8 -9 -13 -17 -19 -15 -8 -10 -10 -9 -8 5 7 9 6 7 7 6 8 8 10 11 11 12 12 13 15
-12 -13 -14 -14 -15 -15 -16 -16 -17 -17 -18 -18 -19 -19 -19 -16 -6 -12 -4 -4 -13 -18 -18 -7 -10 -9 -8 -10 -2 6 10 7 6 5 4 6 7 5 10 12 13 12 12 14 14
-12 -13 -14 -14 -15 -15 -16 -16 -17 -17 -18 -18 -19 -19 -19 -11 4 3 -3 -16 -17 -19 -11 -9 -7 -6 -7 -7 3 6 9 6 6 6 2 6 6 6 8 11 13 13 14 14 14
-12 -13 -14 -14 -15 -16 -16 -16 -17 -17 -18 -18 -18 -19 -19 -9 6 -1 -16 -18 -19 -18 -7 -6 -6 -7 -6 -6 -4 2 0 1 -0 -3 -3 4 5 6 4 7 11 12 13 14 14
-12 -13 -14 -15 -15 -16 -16 -17 -17 -18 -18 -18 -18 -19 -19 -6 1 2 -13 -17 -15 -8 -8 -7 -6 -5 -5 -5 0 3 0 1 -1 -2 -3 -2 2 6 6 6 13 13 13 14 14
-13 -13 -14 -15 -16 -16 -17 -17 -17 -18 -18 -18 -17 -18 -19 1 -1 -1 -10 -8 -7 -8 -9 -9 -7 -5 -6 -6 -4 -4 -3 -3 -3 -3 -2 0 4 6 8 7 13 13 13 14 14
-13 -14 -14 -15 -16 -16 -17 -17 -18 -18 -18 -18 -17 -16 -18 -15 -1 -1 -9 -6 -7 -8 -10 -6 -5 -6 -5 -6 -7 -7 -3 -4 -4 -5 -2 -1 1 6 7 11 13 13 13 14 14
-13 -14 -15 -15 -15 -17 -17 -17 -18 -18 -18 -19 -18 -3 -14 -6 -6 -4 -7 -5 -7 -11 -11 -6 -5 -5 -5 -7 -8 -8 -6 -2 -4 -1 -3 -5 -3 3 9 12 13 13 13 13 14
-14 -14 -15 -16 -16 -16 -17 -17 -18 -19 -19 -19 -13 1 -11 -5 -5 -6 -2 -7 -4 -8 -11 -7 -7 -8 -7 -6 -6 -7 -6 -5 -4 -2 -2 -6 -2 1 9 11 12 13 13 14 13
-15 -15 -16 -16 -17 -17 -17 -18 -14 -10 -7 -15 -15 -7 -9 -8 -7 -6 -5 -4 -4 -8 -10 -10 -7 -6 -6 -6 -4 -6 -6 -5 1 -1 -2 -5 -5 -4 6 12 13 13 13 14 13
-15 -16 -16 -17 -17 -18 -18 -4 -4 -0 -6 -6 -4 -11 -9 -7 -6 -8 -4 -5 -5 -8 -10 -10 -6 -5 -7 -7 -7 -8 -10 -9 -7 -3 -4 -6 -6 -6 2 8 10 12 14 14 13
-16 -16 -17 -18 -18 -18 -11 -2 -3 -4 -6 -8 -6 -5 -6 -6 -5 -7 -5 -4 -7 -6 -8 -8 -7 -7 -6 -7 -8 -12 -12 -10 -9 -6 -6 -6 -5 -5 -2 9 10 14 14 14 13
-16 -17 -18 -18 -18 -18 -11 -6 -6 -7 -6 -7 -15 -12 -9 -6 -4 -6 -6 -4 -6 -6 -6 -5 -8 -7 -5 -8 -11 -12 -11 -11 -8 -7 -8 -5 -2 -3 -2 9 11 13 14 13 13
-17 -18 -18 -19 -19 -7 -6 -6 -6 -7 -3 -5 -7 -15 -13 -6 -9 -9 -6 -5 -6 -6 -6 -6 -9 -7 -6 -7 -10 -11 -11 -4 -3 -5 -5 -5 -2 -2 2 12 12 14 14 14 14
-19 -19 -19 -19 -11 -6 -7 -6 -7 -5 -9 -6 -11 -14 -16 -9 -11 -11 -11 -7 -5 -6 -6 -4 -5 -6 -7 -7 -11 -10 -7 -5 -5 -5 -6 -5 -2 -1 7 11 11 13 14 15 14
-19 -20 -20 -19 -18 -7 -7 -6 -6 -2 -2 -6 -12 -12 -12 -11 -12 -11 -11 -8 -7 -6 -6 -4 -4 -6 -7 -9 -11 -8 -5 -3 -1 -3 -1 -3 1 1 4 8 12 12 15 16 16
-19 -19 -21 -20 -14 -7 -8 -8 -4 -0 -6 -11 -10 -12 -12 -12 -12 -12 -5 -6 -6 -4 -2 -1 -1 -5 -8 -7 -7 -6 -3 -0 -1 3 2 1 1 3 5 6 10 11 16 17 16
-18 -21 -23 -22 -16 -6 -7 -5 -1 -5 -7 -11 -13 -11 -12 -13 -13 -12 -4 -4 -5 -2 0 1 1 -3 -7 -7 -5 -5 -5 -0 0 1 2 1 1 7 6 6 7 14 9 9 16
-19 -22 -23 -22 -20 -5 -6 -2 -3 -2 -7 -8 -9 -9 -9 -10 -12 -11 -4 -2 -5 -4 -2 1 1 -2 -5 -8 -7 -6 -3 -4 -1 -1 0 1 5 3 7 8 12 13 12 13 15
-19 -20 -16 -16 -17 -6 -4 -2 -4 -6 -8 -8 -7 -8 -7 -8 -10 -10 -7 -3 -3 -5 -5 -2 -0 -3 -4 -8 -7 -8 -7 -4 -2 0 2 3 5 6 6 5 10 11 10 11 15
-6 1 -4 -5 -16 -6 -5 -4 -7 -10 -10 -8 -9 -9 -6 -4 -5 -11 -10 -7 -4 -4 -4 -3 -3 -3 -3 -5 -5 -5 -5 -3 -4 -1 -1 1 2 6 6 8 9 8 8 9 11
-11 3 -4 -7 -5 -5 -6 -8 -11 -11 -12 -12 -10 -10 -8 -5 -3 -0 -9 -9 -7 -7 -4 -4 -2 -1 -2 -4 -5 -5 -5 -3 2 -1 1 2 5 8 8 8 7 8 10 11 11
-6 3 -3 -5 -6 -7 -8 -9 -11 -12 -12 -11 -9 -9 -10 -6 -4 -1 -2 -7 -4 -4 -1 -3 -2 -1 -2 -4 -3 -2 -2 -3 -1 -1 -1 1 2 7 8 10 10 7 6 6 7
-2 5 -3 -5 -6 -7 -7 -5 -4 -6 -10 -12 -10 -9 -9 -6 -4 -4 -5 -5 -7 -5 -3 0 2 -2 -1 -1 0 -1 -1 -1 -2 -0 -0 2 5 7 9 11 12 8 3 1 2
3 3 -1 1 -5 -5 -7 -6 -5 -4 -6 -10 -9 -8 -9 -5 -3 3 1 0 -2 -6 -5 -2 2 0 0 -1 -1 -1 0 0 -0 -0 1 -0 5 7 9 9 12 8 6 6 6
-1 -1 -2 -1 0 -1 -4 -7 -6 -6 -5 -9 -9 -8 2 4 3 2 3 4 4 3 -4 -2 0 0 -1 2 2 2 1 1 0 4 -0 7 8 9 8 8 11 11 12 13 14
-4 -4 -2 -0 -1 -1 -2 -3 -4 -6 -5 3 1 0 4 3 1 1 -0 -1 1 3 5 6 1 1 -1 2 5 2 1 1 6 9 9 5 5 9 11 9 10 13 9 10 14

GFSSW_850_dewp_033.txt.gz
Dewpoint
-13 -13 -14 -14 -15 -15 -16 -16 -17 -17 -18 -18 -18 -19 -19 -19 -18 -19 -14 -12 -12 -17 -19 -13 -8 -11 -11 -7 -8 6 6 6 6 6 5 5 8 11 11 13 12 13 11 10 16
-12 -13 -13 -14 -15 -15 -16 -16 -17 -17 -18 -18 -18 -19 -19 -15 -2 -10 -4 -10 -16 -18 -19 -8 -9 -8 -9 -10 -7 1 7 4 4 4 4 6 8 10 12 13 13 13 13 15 15
-13 -13 -14 -14 -15 -16 -16 -16 -17 -17 -17 -18 -18 -19 -19 -8 3 -5 -14 -17 -18 -19 -9 -7 -6 -7 -7 -6 4 5 6 5 5 5 4 4 7 6 12 13 13 14 15 15 15
-13 -13 -14 -15 -15 -16 -16 -17 -17 -17 -18 -18 -18 -18 -19 -6 5 -1 -16 -19 -20 -17 -7 -7 -5 -6 -7 -7 -5 5 3 3 3 -0 5 3 6 5 8 8 9 9 13 14 15
-13 -13 -14 -15 -15 -16 -16 -17 -17 -17 -18 -18 -18 -18 -19 -12 1 1 -11 -17 -8 -7 -8 -9 -6 -5 -4 -5 -4 2 1 0 0 0 -1 2 6 6 5 7 10 12 14 13 14
-13 -14 -14 -15 -15 -16 -16 -17 -17 -17 -18 -18 -18 -18 -18 -8 -0 -2 -9 -8 -7 -8 -9 -9 -6 -5 -5 -5 -4 -5 -6 -4 -3 -4 -2 1 3 5 9 11 12 13 14 13 12
-13 -14 -15 -15 -15 -16 -17 -17 -17 -18 -18 -18 -18 -17 -13 -18 -4 -2 -8 -7 -7 -8 -9 -9 -5 -5 -5 -5 -7 -7 -3 -4 -4 -4 -2 3 5 7 9 11 13 14 14 13 13
-14 -14 -15 -16 -16 -16 -16 -17 -17 -18 -18 -18 -18 -13 -9 -7 -7 -8 -6 -7 -8 -10 -11 -8 -8 -8 -6 -6 -8 -8 -7 -4 -5 -4 -5 -3 -1 5 10 12 14 14 14 13 14
-15 -15 -15 -16 -17 -17 -16 -17 -17 -18 -19 -19 -18 -4 -10 -6 -7 -7 -5 -7 -5 -7 -10 -9 -8 -7 -7 -6 -6 -7 -7 -8 -7 -6 -3 -4 -4 5 12 12 14 14 14 14 14
-15 -16 -16 -17 -17 -17 -17 -17 -14 -5 -4 -6 -12 -14 -14 -7 -5 -6 -5 -6 -4 -5 -10 -10 -7 -6 -6 -6 -6 -6 -7 -8 -4 -3 -2 -4 -6 8 10 12 13 13 14 14 14
-15 -16 -17 -17 -18 -18 -16 -5 -5 -3 -6 -6 -6 -12 -12 -6 -6 -7 -8 -5 -4 -7 -8 -10 -6 -5 -8 -7 -7 -8 -7 -7 -9 -7 -3 -4 -6 -4 10 11 12 13 14 14 14
-15 -16 -17 -18 -18 -19 -7 -5 -6 -4 -5 -9 -7 -6 -8 -6 -5 -8 -4 -4 -6 -6 -8 -7 -7 -8 -7 -6 -5 -6 -10 -11 -10 -8 -6 -6 -5 -5 6 11 12 13 14 14 14
-17 -17 -17 -18 -18 -18 -7 -7 -7 -7 -6 -8 -11 -10 -8 -8 -6 -5 -5 -4 -7 -6 -6 -6 -7 -8 -6 -6 -6 -12 -11 -11 -7 -8 -7 -5 -4 -4 -3 7 10 13 14 14 13
-18 -18 -18 -19 -19 -10 -6 -7 -6 -7 -5 -8 -7 -14 -12 -10 -8 -6 -7 -4 -5 -4 -5 -6 -7 -8 -7 -5 -8 -9 -11 -6 -5 -5 -4 -6 -3 -4 7 13 14 14 14 14 14
-19 -20 -20 -19 -17 -7 -6 -6 -6 -7 -13 -13 -11 -13 -13 -8 -10 -10 -6 -6 -4 -6 -7 -5 -5 -4 -5 -7 -10 -8 -8 -4 -5 -5 -6 -5 -4 -3 8 14 15 15 14 14 13
-19 -20 -21 -20 -19 -8 -7 -4 -6 -5 -8 -8 -12 -12 -10 -9 -10 -10 -8 -9 -6 -5 -6 -6 -7 -4 -4 -7 -10 -7 -7 -4 -1 -3 -2 -3 -2 0 9 10 12 14 15 16 17
-18 -19 -22 -21 -17 -9 -7 -7 -7 -3 -10 -9 -11 -12 -11 -10 -10 -12 -6 -5 -4 -5 -5 -3 -3 -3 -7 -7 -7 -6 -4 -1 -4 2 1 -0 2 1 5 7 13 17 17 17 15
-18 -20 -23 -23 -19 -7 -8 -5 -8 -11 -7 -9 -10 -12 -11 -13 -12 -11 -6 -4 -6 -3 -1 0 0 -3 -6 -7 -6 -6 -6 -1 -1 1 1 -1 2 5 7 7 16 16 16 13 9
-19 -22 -24 -23 -21 -7 -6 -5 -6 -5 -5 -7 -8 -9 -10 -12 -12 -12 -7 -5 -5 -4 -4 1 1 -2 -4 -6 -7 -5 -3 -5 -2 -1 0 1 4 4 13 15 14 9 7 6 6
-20 -15 -20 -14 -20 -6 -6 -5 -6 -5 -8 -8 -7 -9 -6 -8 -11 -11 -7 -6 -4 -5 -6 -3 -1 -4 -4 -7 -7 -7 -6 -4 -3 -1 -0 0 1 6 12 14 11 12 9 9 9
-9 -1 -4 -13 -8 -6 -6 -6 -7 -9 -11 -9 -9 -9 -8 -5 -9 -10 -10 -10 -5 -4 -5 -3 -3 -2 -4 -5 -4 -5 -5 -3 -4 -2 -1 0 0 3 8 10 10 11 11 11 12
-7 -0 -3 -10 -8 -5 -6 -6 -10 -11 -13 -13 -11 -9 -9 -7 -4 -1 -10 -10 -7 -4 -3 -4 -3 -1 -2 -4 -4 -6 -5 -4 -1 -1 1 1 1 5 5 7 7 7 11 10 11
-8 2 -3 -8 -4 -7 -8 -9 -9 -12 -13 -14 -11 -10 -9 -9 -4 -3 -4 -7 -5 -5 -3 -3 -2 -0 -1 -3 -4 -1 -2 -1 -2 -2 -0 0 1 7 8 8 8 10 11 9 12
-1 3 -2 -4 -5 -7 -6 -7 -6 -7 -8 -12 -12 -11 -9 -6 -4 -4 -4 -5 -5 1 -2 -3 -2 -2 -0 -2 -1 -1 -1 -2 -3 0 -0 0 -1 8 8 10 11 8 5 7 10
3 2 -1 1 -3 -4 -6 -7 -6 -6 -5 -7 -9 -8 -8 -4 -1 3 3 3 -0 1 -3 -2 2 0 -1 -1 -2 -1 1 0 -0 -1 1 0 2 3 9 10 10 6 6 7 8
-1 -2 -3 -2 0 -0 -2 -6 -6 -8 -6 -5 -8 -0 1 3 2 2 2 2 3 2 -3 -2 1 -1 -1 1 1 0 -1 1 3 7 3 6 8 9 9 9 9 7 9 10 9
-5 -3 -1 -1 -0 -2 -3 -4 -3 -4 -4 3 2 3 2 2 2 1 0 -2 0 3 6 6 -0 -2 -3 4 1 -2 2 5 10 12 11 4 7 10 9 9 9 9 9 8 9

GFSSW_850_dewp_036.txt.gz
Dewpoint
-12 -13 -14 -14 -15 -15 -16 -16 -17 -17 -17 -18 -18 -19 -19 -19 -18 -19 -19 -13 -13 -16 -20 -19 -10 -10 -9 -8 -7 5 5 7 5 7 5 6 10 10 11 12 13 14 11 13 15
-12 -13 -14 -14 -15 -15 -16 -16 -17 -17 -17 -18 -18 -18 -19 -14 -4 -11 -8 -8 -13 -17 -20 -9 -9 -9 -9 -8 -1 0 4 3 3 3 4 6 9 11 12 12 14 14 12 14 15
-13 -13 -14 -14 -15 -15 -16 -16 -17 -17 -17 -18 -18 -18 -19 -4 0 -6 -15 -16 -18 -19 -10 -7 -6 -7 -7 -7 4 4 3 5 5 4 5 7 8 9 12 14 13 13 12 15 15
-13 -14 -14 -15 -15 -15 -16 -16 -17 -17 -17 -18 -18 -18 -19 -6 4 1 -15 -19 -20 -9 -7 -7 -5 -6 -6 -6 -6 1 3 3 3 2 5 4 7 7 11 8 9 7 8 14 15
-13 -14 -14 -15 -15 -16 -16 -17 -17 -17 -17 -18 -18 -18 -18 -16 -0 2 -7 -14 -8 -7 -8 -7 -5 -5 -4 -5 -6 2 1 -1 -1 0 1 2 6 6 11 7 9 9 11 13 13
-13 -14 -14 -15 -15 -16 -16 -17 -17 -17 -17 -18 -18 -18 -16 -15 -1 -2 -8 -8 -7 -8 -9 -8 -5 -5 -5 -5 -5 -6 -6 -6 -4 -2 -1 2 5 6 8 10 11 11 11 12 13
-13 -14 -15 -15 -16 -16 -16 -16 -17 -17 -17 -18 -18 -18 -16 -19 -6 -3 -9 -8 -6 -8 -9 -9 -9 -7 -7 -5 -6 -7 -7 -6 -4 -4 -2 3 6 6 7 12 12 12 13 12 12
-14 -15 -15 -16 -16 -16 -16 -16 -17 -17 -18 -18 -18 -18 -15 -12 -9 -11 -8 -7 -7 -6 -9 -10 -9 -8 -6 -6 -8 -8 -8 -6 -8 -4 -3 -2 -1 3 9 13 14 14 14 13 12
-15 -15 -16 -16 -16 -17 -17 -17 -17 -17 -17 -18 -18 -16 -13 -12 -8 -7 -7 -8 -5 -5 -8 -9 -9 -7 -7 -7 -8 -8 -8 -8 -8 -6 -4 -2 -1 -3 12 14 14 14 14 14 13
-15 -16 -17 -17 -17 -17 -18 -16 -14 -4 -5 -5 -7 -13 -19 -6 -5 -6 -6 -6 -3 -5 -10 -9 -7 -6 -6 -7 -7 -7 -7 -8 -7 -6 -2 -2 -5 8 13 14 14 14 14 14 13
-14 -15 -17 -17 -18 -18 -11 -5 -5 -5 -4 -6 -7 -15 -17 -9 -6 -5 -5 -6 -3 -7 -9 -9 -8 -11 -10 -7 -8 -8 -7 -7 -8 -10 -3 -2 -5 -5 10 13 13 14 14 14 13
-16 -16 -16 -18 -18 -18 -6 -6 -7 -7 -6 -10 -9 -7 -8 -8 -7 -7 -7 -4 -6 -6 -8 -8 -8 -9 -8 -7 -6 -6 -6 -11 -10 -9 -5 -6 -5 -5 10 11 12 13 14 14 14
-17 -17 -17 -18 -19 -19 -7 -7 -7 -7 -6 -9 -10 -10 -8 -9 -8 -7 -6 -4 -7 -7 -7 -7 -10 -7 -7 -6 -6 -9 -11 -11 -6 -7 -7 -6 -5 -6 -3 5 6 11 13 13 13
-18 -19 -19 -18 -19 -16 -6 -7 -7 -7 -9 -12 -10 -13 -11 -8 -7 -7 -6 -4 -5 -4 -5 -6 -7 -7 -6 -7 -6 -7 -10 -9 -5 -4 -3 -6 -2 -5 1 13 14 14 13 14 15
-19 -20 -20 -19 -19 -11 -6 -6 -6 -6 -14 -16 -12 -12 -10 -9 -9 -7 -6 -4 -4 -6 -7 -6 -6 -6 -5 -5 -9 -7 -9 -4 -5 -5 -6 -5 -5 -4 7 13 13 15 14 15 16
-18 -20 -21 -20 -20 -13 -7 -5 -6 -9 -11 -10 -11 -12 -9 -9 -10 -8 -6 -6 -6 -5 -6 -6 -7 -6 -5 -7 -10 -7 -7 -4 -2 -4 -2 -2 -3 -1 6 6 7 16 17 16 16
-17 -18 -22 -22 -20 -12 -7 -6 -7 -8 -13 -10 -11 -12 -11 -10 -9 -11 -6 -5 -4 -4 -4 -4 -4 -3 -5 -7 -7 -7 -5 -3 -5 -0 -1 -1 2 1 2 7 11 17 17 17 17
-17 -19 -22 -23 -22 -8 -7 -7 -11 -12 -9 -9 -8 -10 -10 -11 -10 -10 -6 -6 -6 -4 -2 -1 -3 -3 -6 -6 -6 -6 -7 -3 -4 -0 0 -1 1 5 10 10 16 16 15 15 15
-18 -21 -23 -24 -23 -8 -7 -5 -7 -9 -5 -7 -8 -9 -10 -12 -11 -11 -8 -6 -6 -5 -4 0 -0 -2 -4 -6 -6 -4 -4 -6 -1 -1 -0 0 4 4 14 15 14 12 12 9 6
-20 -7 -15 -11 -20 -8 -8 -6 -8 -7 -8 -8 -7 -9 -6 -7 -11 -11 -8 -9 -8 -5 -7 -4 -1 -4 -4 -7 -6 -6 -6 -3 -3 -1 -1 -0 -1 6 11 14 13 11 8 8 9
-12 -1 -4 -15 -15 -6 -7 -8 -8 -9 -10 -10 -9 -9 -8 -7 -10 -11 -10 -11 -7 -5 -6 -3 -3 -3 -4 -5 -4 -5 -4 -4 -3 -3 -1 -0 1 0 8 12 12 12 8 8 6
-6 -2 -5 -9 -8 -6 -7 -7 -9 -12 -14 -15 -11 -10 -9 -9 -5 -9 -10 -10 -7 -5 -4 -4 -3 -2 -2 -4 -4 -6 -5 -4 -1 -1 1 -0 -0 -0 6 9 10 10 10 10 11
-5 0 -7 -5 -4 -7 -8 -8 -9 -11 -13 -16 -12 -11 -9 -9 -5 -2 -4 -7 -5 -4 -3 -4 -2 0 -1 -3 -3 -2 -3 -2 -3 -2 2 1 1 3 7 7 9 8 7 9 11
1 1 -2 -5 -6 -7 -6 -6 -7 -9 -9 -11 -13 -11 -10 -8 -3 -3 -0 -4 -2 -0 -2 -4 -3 -1 -0 -1 -1 -1 -1 -3 -2 1 -0 -0 -1 -0 7 7 8 8 9 8 10
0 1 -1 -0 -3 -1 -5 -6 -6 -6 -7 -6 -8 -10 -8 -6 -1 2 2 2 0 -1 -3 -3 -2 -2 -2 -3 -2 -1 0 -1 -1 -1 1 0 0 1 2 8 7 9 8 8 10
-1 -2 -3 -2 -0 -2 -2 -4 -5 -5 -8 -6 -4 -8 -5 -1 -1 1 1 1 3 2 -3 -1 1 -1 1 1 1 1 1 1 4 2 1 5 4 3 9 9 9 9 8 9 10
-4 -2 -1 -1 -1 -3 -3 -4 -4 -4 -4 -5 3 2 2 2 2 1 1 -2 0 2 5 2 -1 -2 1 4 -3 -1 3 6 11 11 9 5 3 9 9 9 8 7 7 7 9

GFSSW_850_dewp_042.txt.gz
Dewpoint
-13 -14 -14 -15 -15 -16 -16 -16 -17 -17 -17 -17 -18 -18 -18 -17 -15 -18 -13 -15 -12 -11 -13 -13 -5 -4 4 -1 -1 3 4 4 2 4 2 5 6 8 9 11 10 12 11 12 17
-13 -14 -14 -15 -15 -16 -16 -16 -17 -17 -17 -17 -18 -18 -18 -4 -8 -3 -8 -11 -15 -14 -16 -7 -5 -4 -2 -7 -1 1 4 2 1 2 2 3 6 8 9 10 11 14 14 15 16
-13 -14 -14 -15 -16 -16 -16 -17 -17 -17 -17 -17 -18 -18 -18 -1 -1 -2 -16 -18 -18 -18 -18 -9 -5 -6 -7 -5 0 2 3 1 0 0 1 2 5 7 8 8 8 11 14 15 15
-14 -14 -15 -15 -16 -16 -16 -17 -17 -17 -17 -17 -18 -18 -18 -1 -3 2 -13 -20 -20 -14 -7 -4 -5 -7 -5 -2 -5 1 -0 1 -1 0 1 3 4 7 7 7 8 11 13 14 14
-13 -14 -15 -15 -16 -16 -17 -17 -17 -17 -17 -18 -18 -18 -18 -8 0 0 -12 -13 -7 -8 -5 -5 -6 -6 -3 -3 -3 -1 -2 -3 -3 -2 0 2 4 5 7 7 10 12 13 14 14
-14 -14 -15 -15 -16 -16 -17 -17 -18 -18 -18 -18 -18 -18 -12 -11 -2 -4 -11 -8 -6 -5 -6 -7 -6 -5 -5 -4 -4 -5 -5 -5 -4 -2 -0 0 0 5 5 8 12 12 12 13 13
-14 -15 -15 -16 -16 -16 -17 -17 -18 -18 -18 -18 -18 -18 -12 -14 -13 -4 -9 -9 -7 -5 -5 -6 -7 -7 -5 -4 -6 -6 -3 -4 -5 -5 -4 -1 2 3 2 10 12 12 12 12 13
-14 -15 -16 -16 -16 -17 -17 -17 -18 -18 -18 -18 -18 -18 -11 -18 -18 -5 -9 -6 -7 -4 -5 -6 -8 -7 -7 -5 -6 -3 -3 -2 -7 -10 -6 -1 -0 -3 6 9 11 11 12 12 13
-14 -15 -16 -16 -17 -17 -17 -17 -18 -18 -18 -17 -14 -7 -14 -16 -11 -5 -5 -6 -5 -5 -7 -9 -7 -8 -9 -5 -2 -2 0 -3 -5 -9 -7 -0 -1 -1 4 8 10 11 12 12 13
-13 -14 -15 -16 -17 -17 -17 -17 -16 -16 -14 -11 -10 -7 -14 -10 -6 -6 -5 -5 -5 -7 -9 -8 -9 -9 -7 -4 -0 -1 -1 -4 -4 -9 -9 -5 -3 -3 5 7 9 12 13 13 13
-15 -15 -15 -16 -18 -18 -17 -13 -7 -4 -5 -9 -9 -11 -15 -7 -7 -5 -4 -5 -6 -9 -10 -8 -10 -10 -6 -5 -6 -4 -2 -3 -7 -9 -6 -3 -1 -2 4 7 9 11 13 13 13
-17 -16 -15 -15 -17 -19 -14 -5 -9 -9 -8 -10 -9 -8 -10 -8 -8 -6 -5 -7 -8 -9 -9 -10 -12 -11 -9 -8 -7 -5 -3 -4 -8 -5 -6 -6 -4 -2 3 7 7 9 13 13 14
-19 -19 -17 -16 -17 -18 -6 -7 -7 -7 -6 -11 -10 -11 -11 -10 -10 -8 -6 -7 -8 -9 -10 -12 -12 -10 -10 -8 -6 -4 -4 -6 -7 -5 -7 -6 -4 -2 -1 8 11 9 9 12 14
-20 -20 -19 -17 -17 -17 -4 -7 -7 -7 -9 -13 -14 -12 -10 -9 -11 -8 -7 -7 -8 -9 -10 -12 -14 -10 -9 -9 -9 -7 -8 -9 -8 -7 -5 -5 -5 0 2 6 10 10 10 11 13
-19 -21 -21 -18 -19 -11 -5 -7 -6 -6 -10 -16 -14 -11 -10 -12 -10 -8 -7 -6 -6 -7 -9 -12 -11 -11 -8 -10 -11 -7 -10 -8 -6 -7 -6 -4 -6 -4 1 3 8 12 11 13 16
-18 -20 -21 -21 -18 -16 -7 -6 -6 -6 -11 -12 -11 -13 -11 -11 -11 -6 -7 -6 -6 -6 -8 -9 -8 -8 -10 -5 -7 -6 -5 -5 -6 -9 -6 -2 -6 -3 -2 5 7 12 14 15 15
-17 -18 -21 -21 -10 -18 -7 -5 -7 -8 -14 -13 -11 -12 -13 -12 -12 -9 -6 -5 -6 -3 -4 -9 -8 -10 -7 -5 -6 -5 -7 -5 -5 -6 -5 -1 -4 -3 -1 6 9 9 15 15 16
-17 -18 -21 -22 -21 -16 -6 -6 -5 -10 -12 -12 -11 -11 -10 -13 -12 -11 -7 -6 -8 -7 -7 -6 -7 -7 -7 -5 -6 -6 -7 -6 -1 -5 -5 -0 -4 1 3 9 12 12 16 16 16
-17 -20 -20 -22 -22 -13 -5 -5 -9 -10 -10 -10 -11 -11 -10 -11 -12 -11 -10 -8 -8 -7 -5 -7 -9 -8 -6 -6 -5 -3 -5 -6 -3 -4 -6 -4 -2 -4 4 9 13 14 16 16 16
-19 -2 -5 -20 -22 -10 -6 -6 -8 -12 -9 -10 -10 -10 -8 -9 -10 -10 -10 -11 -10 -9 -8 -5 -4 -8 -5 -5 -5 -4 -5 -4 -5 -0 -1 -3 -1 -3 -2 6 11 12 14 15 15
-6 -3 -7 -11 -19 -7 -7 -9 -9 -11 -10 -10 -8 -8 -8 -7 -9 -10 -10 -11 -12 -11 -9 -8 -3 -4 -3 -3 -4 -3 -3 -3 -4 -2 -2 -1 -2 -3 0 4 9 11 12 12 10
-1 -4 -9 -15 -9 -8 -8 -8 -10 -13 -13 -13 -12 -10 -9 -8 -6 -6 -9 -11 -12 -11 -7 -7 -4 -3 -6 -4 -4 -4 -3 -2 -2 3 -3 0 -2 -3 3 6 10 11 11 10 12
1 -2 -8 -9 -10 -9 -8 -10 -11 -13 -14 -15 -14 -12 -9 -7 -4 -6 -4 -9 -9 -10 -8 -6 -4 -0 -2 -3 -2 -2 -3 -2 1 2 1 -1 -0 -1 2 5 10 12 12 12 11
3 -3 -6 -7 -5 -7 -6 -8 -9 -11 -13 -15 -13 -13 -12 -10 -7 -3 -3 -5 -3 -7 -3 -3 -5 -1 -5 -3 -4 1 -1 -2 -2 -1 1 -2 -0 -1 5 6 8 11 12 11 12
1 0 -0 -6 -7 -3 -3 -4 -7 -9 -12 -9 -10 -11 -11 -7 -7 -4 -2 -1 -1 -0 -3 -4 0 -2 -5 -4 -4 -2 -2 -2 0 -2 -0 -2 -2 5 7 9 8 10 11 11 12
0 0 -1 0 1 -1 -1 -2 -3 -5 -6 -10 -8 -9 -9 -7 -6 -0 -1 1 -1 -0 -0 -2 1 -3 -4 -7 -6 -3 -3 -2 -1 -1 -1 -3 -0 7 8 9 9 10 11 11 12
-2 -2 0 -1 -1 -2 -2 -2 -2 -3 -4 -9 -7 -5 -3 -3 -7 -1 1 2 4 4 2 2 -1 3 -3 -4 -4 -2 -2 -2 -2 -2 -1 1 7 7 9 10 10 10 10 10 11

GFSSW_850_dewp_045.txt.gz
Dewpoint
-14 -15 -15 -15 -16 -16 -16 -17 -17 -17 -17 -17 -18 -18 -18 -16 -15 -18 -5 -9 -9 -11 -13 -1 -3 5 2 5 3 -1 10 11 0 2 2 2 2 4 5 5 8 8 9 12 15
-14 -15 -15 -16 -16 -16 -16 -17 -17 -17 -17 -17 -18 -18 -18 -4 -13 -2 -3 -14 -12 -14 -12 -10 -7 -5 -4 -1 -3 1 9 5 -2 -1 -1 -0 3 4 5 5 9 11 11 13 14
-14 -14 -15 -15 -16 -16 -17 -17 -17 -17 -17 -18 -18 -18 -18 -3 1 -1 -12 -16 -16 -18 -15 -11 -8 -5 -4 -4 -2 1 5 -2 -3 -3 -2 -1 1 3 4 4 5 10 12 13 13
-14 -14 -15 -15 -16 -17 -17 -17 -17 -18 -18 -18 -18 -18 -17 -4 1 1 -15 -20 -19 -16 -9 -8 -8 -6 -4 -3 -3 -0 0 -2 -3 -3 -3 -1 1 1 2 3 4 9 11 12 13
-14 -15 -15 -16 -16 -17 -17 -17 -18 -18 -18 -18 -18 -18 -18 -4 -0 -3 -13 -18 -14 -7 -8 -8 -7 -5 -4 -3 -2 -0 -2 -3 -4 -5 -3 -2 -1 1 1 6 7 9 10 11 12
-14 -15 -15 -16 -16 -17 -17 -18 -18 -18 -18 -18 -18 -18 -5 -9 -1 -0 -9 -9 -8 -8 -9 -9 -7 -5 -4 -3 -2 -2 -3 -4 -5 -4 -4 -4 -3 -1 0 4 8 10 10 11 11
-14 -15 -15 -16 -17 -17 -17 -18 -18 -18 -19 -19 -19 -19 -7 -12 -10 -2 -7 -10 -7 -7 -8 -8 -8 -7 -4 -3 -2 -3 -2 -4 -5 -6 -6 -5 -3 -2 -2 3 9 10 9 10 12
-14 -15 -15 -16 -17 -17 -17 -18 -18 -19 -19 -19 -19 -17 -7 -12 -12 -7 -6 -8 -8 -8 -7 -6 -8 -8 -6 -4 -3 -2 -3 -3 -5 -8 -8 -7 3 6 0 4 7 10 9 10 12
-14 -15 -15 -16 -16 -17 -17 -18 -18 -19 -19 -19 -10 -1 -11 -14 -15 -13 -7 -9 -9 -8 -8 -8 -9 -9 -6 -3 -1 -3 0 5 -5 -9 -10 -6 -3 -2 -3 2 5 9 10 10 12
-14 -14 -15 -16 -17 -17 -17 -17 -18 -19 -16 -18 -12 -6 -12 -16 -10 -9 -9 -7 -8 -9 -9 -11 -12 -9 -6 -5 -0 -1 -2 1 -4 -7 -10 -8 -6 -6 -1 -0 3 8 10 11 11
-15 -15 -14 -16 -17 -17 -17 -7 -5 -1 -3 -12 -9 -14 -15 -13 -9 -11 -9 -9 -9 -8 -10 -11 -11 -10 -8 -6 -6 -5 -3 -3 -5 -8 -8 -6 -6 -4 -1 -1 1 6 10 11 11
-17 -16 -15 -15 -16 -18 -16 -6 -5 -6 -8 -13 -13 -12 -12 -10 -10 -10 -9 -9 -11 -9 -12 -10 -11 -14 -12 -8 -5 -6 -4 -4 -6 -8 -8 -7 -6 -5 -3 -0 -1 1 8 11 12
-20 -19 -18 -15 -16 -16 -5 -5 -6 -5 -8 -15 -14 -15 -15 -15 -13 -12 -9 -9 -10 -11 -12 -10 -13 -13 -12 -10 -6 -7 -5 -5 -4 -6 -7 -8 -6 -3 -2 0 4 6 6 10 11
-20 -21 -20 -17 -16 -10 -6 -5 -6 -5 -8 -13 -14 -16 -14 -13 -15 -14 -10 -10 -10 -11 -12 -13 -15 -12 -13 -12 -9 -5 -8 -8 -8 -7 -6 -5 -4 -1 -0 2 4 7 7 10 12
-19 -21 -21 -18 -6 -10 -3 -7 -6 -5 -6 -14 -15 -11 -15 -15 -14 -14 -10 -10 -9 -11 -10 -11 -14 -13 -12 -12 -12 -11 -9 -9 -9 -7 -6 -7 -5 -3 -2 2 2 7 9 11 14
-18 -19 -21 -12 -17 -9 -8 -7 -5 -5 -8 -14 -15 -15 -14 -14 -16 -11 -11 -10 -10 -9 -9 -12 -11 -14 -15 -14 -12 -12 -8 -7 -7 -8 -5 -6 -6 -7 -1 1 -0 9 13 14 15
-18 -18 -20 -19 -7 -8 -7 -7 -6 -6 -13 -14 -14 -15 -15 -14 -14 -11 -9 -9 -7 -4 -4 -10 -11 -12 -12 -9 -8 -10 -7 -4 -3 -5 -6 -4 -4 -7 -2 2 3 9 13 14 15
-19 -18 -18 -21 -5 -9 -5 -6 -4 -9 -11 -13 -13 -14 -13 -14 -14 -14 -11 -9 -9 -9 -9 -7 -8 -11 -11 -9 -7 -9 -8 -5 -1 -4 -4 -3 -5 -4 -1 4 6 10 14 15 15
-18 -10 -4 -5 -10 -8 -5 -5 -6 -8 -12 -13 -14 -12 -12 -13 -14 -13 -11 -9 -10 -10 -6 -8 -8 -12 -11 -10 -9 -5 -6 -9 -5 -5 -3 -6 -5 -3 -3 4 6 10 14 15 15
-16 -5 -5 -4 -9 -8 -6 -5 -10 -11 -12 -11 -9 -12 -12 -11 -11 -12 -11 -12 -11 -11 -10 -8 -4 -11 -11 -8 -8 -6 -6 -6 -6 -2 -0 -4 -2 0 -0 3 6 9 12 15 15
-12 -4 -3 -7 -9 -10 -6 -7 -10 -11 -11 -12 -11 -11 -10 -9 -10 -12 -11 -12 -13 -12 -11 -10 -5 -8 -8 -5 -6 -6 -5 -5 -7 -3 -1 2 2 -2 -0 2 6 7 12 13 10
-4 -6 -5 -9 -11 -11 -7 -7 -9 -10 -13 -13 -12 -10 -9 -9 -7 -8 -10 -11 -13 -14 -11 -10 -7 -4 -4 -7 -9 -8 -4 -6 -3 0 -2 -3 2 -6 -0 3 5 9 11 10 10
-1 -4 -6 -9 -10 -10 -9 -8 -9 -11 -13 -14 -14 -14 -11 -8 -5 -7 -9 -10 -12 -13 -10 -10 -6 -2 -3 -6 -6 -5 -4 -4 -3 -1 2 1 0 -3 1 4 6 9 10 12 12
0 -6 -8 -11 -11 -7 -9 -7 -9 -12 -13 -15 -14 -14 -11 -9 -8 -4 -7 -7 -10 -11 -7 -7 -5 -3 -4 -4 -6 -2 -6 -7 -5 -0 -1 -2 2 5 4 6 9 11 12 12 11
-2 -3 -2 -8 -10 -9 -7 -7 -7 -7 -11 -14 -12 -13 -11 -7 -8 -6 -7 -6 -4 -5 -7 -7 -1 -3 -5 -6 -5 -5 -3 -4 -4 -3 -1 5 4 9 6 6 7 10 12 11 11
1 -2 -5 -3 -2 -6 -2 -4 -4 -7 -8 -7 -9 -12 -12 -8 -6 -4 -3 -5 -3 -4 -2 -5 -1 -2 -3 -6 -7 -4 -5 -4 -6 -5 -4 -3 6 9 7 8 8 10 10 11 11
-2 -1 -1 -3 -3 -4 -5 -5 -4 -6 -6 -6 -9 -11 -10 -7 -6 -7 -5 -1 1 4 1 -0 -0 0 0 -5 -6 -4 -5 -3 -3 -4 -3 -0 7 6 8 9 10 10 10 10 10

GFSSW_850_dewp_048.txt.gz
Dewpoint
-14 -14 -15 -15 -16 -16 -16 -17 -17 -17 -17 -17 -18 -18 -18 -17 -16 -17 -9 -3 -5 -10 -10 2 5 1 4 1 2 3 8 8 4 8 7 6 6 2 3 5 5 5 8 12 14
-14 -14 -15 -16 -16 -17 -17 -17 -18 -17 -18 -18 -18 -18 -19 -8 -9 -1 -4 -7 -9 -12 -11 -7 -8 -6 -4 -3 -2 4 8 6 3 -3 1 6 6 7 8 6 8 8 11 13 14
-14 -15 -15 -15 -16 -16 -17 -17 -17 -18 -18 -18 -18 -19 -19 -9 -4 -2 -2 -3 -8 -13 -14 -10 -9 -8 -5 -3 -4 5 7 4 3 -4 -3 2 7 7 7 7 7 9 12 13 14
-14 -15 -15 -15 -16 -17 -17 -17 -18 -18 -18 -19 -18 -19 -18 -10 3 -0 -7 -16 -17 -17 -15 -11 -8 -8 -5 -2 -4 1 2 -1 -4 -4 -4 -2 1 6 4 4 5 10 11 12 13
-14 -15 -15 -16 -16 -17 -17 -18 -18 -18 -18 -19 -19 -19 -18 -2 -1 -6 -13 -20 -20 -18 -6 -6 -7 -7 -4 -4 -4 -3 -0 -3 -4 -5 -5 -3 -3 -0 5 5 5 10 11 11 12
-14 -15 -16 -16 -17 -17 -18 -18 -18 -18 -19 -19 -19 -19 -14 -5 -3 -2 -9 -12 -9 -7 -8 -8 -8 -7 -5 -4 -3 -3 -2 -3 -6 -5 -5 -5 -4 -2 -0 4 5 9 10 11 11
-14 -15 -16 -16 -17 -17 -18 -18 -19 -19 -19 -19 -19 -19 -6 -10 -11 -4 -7 -11 -10 -9 -9 -9 -9 -7 -6 -4 -4 -3 -3 -4 -4 -6 -7 -6 -0 0 1 5 6 8 9 10 11
-14 -15 -15 -16 -17 -18 -18 -18 -19 -19 -20 -19 -19 -18 -6 -11 -12 -11 -5 -8 -11 -10 -9 -7 -6 -8 -7 -6 -4 -3 -3 2 2 2 -9 -9 3 1 1 5 7 8 9 9 11
-14 -15 -15 -16 -17 -17 -18 -18 -19 -20 -20 -20 -16 0 -6 -9 -14 -17 -10 -9 -10 -10 -9 -9 -9 -9 -8 -5 -3 -3 -0 3 1 -1 -10 -10 2 1 2 4 2 6 8 9 11
-14 -14 -15 -16 -16 -17 -18 -19 -20 -20 -17 -14 -18 -4 -9 -14 -16 -12 -11 -9 -9 -9 -10 -10 -12 -12 -8 -6 -1 2 6 4 6 0 -9 -10 -6 -3 -2 -2 -1 5 8 9 10
-15 -15 -15 -15 -16 -17 -17 -18 -5 1 -4 -8 -8 -11 -14 -14 -11 -12 -12 -10 -11 -11 -8 -11 -12 -11 -9 -7 -6 -5 4 7 6 3 -8 -8 -6 -6 -4 -4 -2 2 9 10 10
-17 -16 -15 -15 -16 -17 -15 -3 -5 -7 -7 -9 -9 -13 -12 -12 -12 -13 -13 -10 -11 -11 -11 -11 -9 -12 -13 -11 -8 -6 -4 1 1 -5 -8 -8 -7 -7 -5 -3 -4 -4 6 10 15
-20 -19 -17 -15 -15 -17 -7 -6 -7 -8 -9 -13 -16 -15 -16 -15 -15 -15 -12 -11 -11 -11 -12 -11 -12 -14 -14 -12 -9 -6 -5 -6 -6 -6 -7 -7 -7 -5 -4 -3 1 2 3 10 15
-20 -21 -20 -16 -16 -6 -11 -4 -8 -7 -8 -13 -16 -15 -16 -17 -16 -16 -13 -12 -11 -11 -12 -13 -13 -13 -12 -12 -12 -8 -10 -8 -8 -6 -6 -6 -2 -0 -2 1 3 5 5 10 17
-20 -21 -22 -18 -7 -8 -4 -7 -8 -7 -5 -14 -15 -15 -17 -15 -16 -16 -15 -11 -10 -11 -12 -11 -13 -14 -13 -13 -14 -9 -11 -9 -8 -8 -7 -7 -6 5 1 4 5 7 9 13 16
-20 -19 -21 -10 -14 -9 -10 -9 -8 -6 -6 -13 -14 -14 -15 -15 -16 -14 -16 -12 -11 -11 -10 -12 -13 -14 -15 -15 -14 -13 -12 -8 -8 -8 -4 -4 -5 4 3 6 8 10 12 14 15
-21 -19 -20 -16 -5 -7 -10 -8 -6 -5 -13 -12 -14 -15 -15 -15 -15 -14 -11 -10 -9 -6 -6 -8 -11 -12 -12 -14 -14 -11 -9 -3 -2 -3 -4 -5 -6 2 2 1 6 12 13 14 15
-22 -20 -19 -23 -8 -6 -7 -7 -3 -9 -11 -13 -14 -15 -15 -15 -14 -15 -10 -8 -11 -11 -8 -6 -7 -13 -13 -12 -10 -7 -9 -4 2 -0 4 3 4 1 3 2 9 11 13 14 15
-23 -11 -14 -8 -22 -7 -7 -5 -5 -7 -12 -12 -13 -13 -12 -14 -15 -13 -13 -11 -11 -11 -5 -7 -8 -11 -13 -13 -12 -7 -6 -10 -5 -5 -2 4 4 -0 -0 4 8 11 13 14 14
-21 -5 -5 -6 -7 -7 -7 -4 -9 -11 -12 -11 -10 -12 -11 -12 -13 -13 -12 -13 -12 -11 -11 -9 -5 -9 -12 -13 -11 -9 -7 -4 -7 2 2 -4 5 7 5 6 9 10 12 13 14
-19 -2 -3 -6 -8 -8 -6 -7 -9 -11 -11 -11 -10 -10 -11 -11 -12 -12 -12 -13 -13 -12 -11 -10 -7 -6 -10 -9 -7 -7 -6 -3 -6 -4 4 6 10 7 11 9 7 8 11 13 14
-1 -3 -4 -9 -11 -11 -7 -6 -8 -10 -11 -11 -12 -11 -8 -10 -9 -8 -10 -13 -14 -14 -11 -10 -9 -4 -6 -10 -9 -8 -7 -6 -2 3 -0 2 4 1 5 1 5 9 11 11 9
1 -5 -4 -11 -12 -13 -11 -9 -7 -8 -9 -10 -13 -13 -11 -9 -5 -7 -8 -11 -13 -13 -8 -9 -7 -5 -4 -6 -6 -6 -8 -6 -2 3 5 7 4 3 5 6 6 9 9 10 11
3 -4 -7 -9 -12 -9 -7 -8 -6 -8 -9 -11 -12 -14 -13 -11 -8 -5 -5 -9 -9 -11 -10 -7 -4 -0 -5 -2 -7 -2 -5 -6 -3 1 0 2 9 10 9 8 9 9 11 12 12
0 -1 -2 -8 -12 -12 -8 -7 -7 -7 -10 -11 -11 -12 -11 -9 -8 -7 -8 -7 -8 -8 -9 -5 3 -3 -5 -7 -6 -5 -3 -4 -6 -5 -2 4 9 9 9 7 6 11 11 12 12
1 -0 -0 -4 -3 -8 -7 -7 -6 -7 -8 -8 -8 -10 -11 -8 -7 -6 -9 -7 -4 -6 -5 -7 2 -1 -2 -5 -7 -6 -2 6 1 -6 -6 -4 9 8 5 1 1 9 10 11 11
-3 -3 -2 -3 -6 -4 -5 -5 -6 -7 -7 -7 -7 -8 -8 -9 -11 -12 -8 -6 -1 2 5 2 1 4 2 -4 -5 -2 -6 -6 -6 -5 -6 0 6 7 8 7 6 10 10 10 10